Wetterdaten: Samstag, 26.06.2010
Datum Zeit Temp. Innen Temp. Aussen UV X Diff Temp. Feuchte Inne Feuchte Auss Sonnenschein Luftdruck Regen ab 0,1 Wind Sonnenschein Windben
26.06.2010 00:03 23,8 C 17,7 C 0,1 UV-I 0,0 C 50 % 65 % 0 % 1019,5 hPa 0,0 l/m 0,0 km/h (0 Bft) 0 min 0,0 km/h (0 Bft)
26.06.2010 00:08 23,8 C 17,5 C 0,1 UV-I 0,0 C 50 % 66 % 0 % 1019,5 hPa 0,0 l/m 0,0 km/h (0 Bft) 0 min 0,0 km/h (0 Bft)
26.06.2010 00:13 23,8 C 17,4 C 0,1 UV-I 0,0 C 50 % 67 % 0 % 1019,5 hPa 0,0 l/m 0,0 km/h (0 Bft) 0 min 0,0 km/h (0 Bft)
26.06.2010 00:18 23,7 C 17,3 C 0,1 UV-I 0,0 C 50 % 67 % 0 % 1019,5 hPa 0,0 l/m 0,0 km/h (0 Bft) 0 min 0,0 km/h (0 Bft)
26.06.2010 00:23 23,7 C 17,2 C 0,1 UV-I 0,0 C 50 % 67 % 0 % 1019,5 hPa 0,0 l/m 0,0 km/h (0 Bft) 0 min 0,0 km/h (0 Bft)
26.06.2010 00:28 23,7 C 17,1 C 0,1 UV-I 0,0 C 50 % 68 % 0 % 1019,5 hPa 0,0 l/m 0,0 km/h (0 Bft) 0 min 0,0 km/h (0 Bft)
26.06.2010 00:33 23,7 C 17,0 C 0,0 UV-I 0,0 C 50 % 68 % 0 % 1019,2 hPa 0,0 l/m 0,0 km/h (0 Bft) 0 min 0,0 km/h (0 Bft)
26.06.2010 00:38 23,6 C 16,9 C 0,1 UV-I 0,0 C 50 % 68 % 0 % 1019,2 hPa 0,0 l/m 0,0 km/h (0 Bft) 0 min 0,0 km/h (0 Bft)
26.06.2010 00:43 23,6 C 16,8 C 0,1 UV-I 0,0 C 50 % 69 % 0 % 1019,2 hPa 0,0 l/m 0,0 km/h (0 Bft) 0 min 0,0 km/h (0 Bft)
26.06.2010 00:48 23,6 C 16,7 C 0,1 UV-I 0,0 C 50 % 69 % 0 % 1019,2 hPa 0,0 l/m 0,0 km/h (0 Bft) 0 min 0,0 km/h (0 Bft)
26.06.2010 00:53 23,6 C 16,7 C 0,1 UV-I 0,0 C 50 % 69 % 0 % 1019,2 hPa 0,0 l/m 0,0 km/h (0 Bft) 0 min 0,0 km/h (0 Bft)
26.06.2010 00:58 23,6 C 16,5 C 0,0 UV-I 0,0 C 50 % 70 % 0 % 1019,2 hPa 0,0 l/m 0,0 km/h (0 Bft) 0 min 0,0 km/h (0 Bft)
26.06.2010 01:03 23,6 C 16,4 C 0,1 UV-I 0,0 C 50 % 71 % 0 % 1019,2 hPa 0,0 l/m 0,0 km/h (0 Bft) 0 min 0,0 km/h (0 Bft)
26.06.2010 01:08 23,5 C 16,3 C 0,1 UV-I 0,0 C 50 % 71 % 0 % 1019,2 hPa 0,0 l/m 0,0 km/h (0 Bft) 0 min 0,0 km/h (0 Bft)
26.06.2010 01:13 23,5 C 16,3 C 0,1 UV-I 0,0 C 51 % 71 % 0 % 1019,6 hPa 0,0 l/m 0,0 km/h (0 Bft) 0 min 0,0 km/h (0 Bft)
26.06.2010 01:18 23,5 C 16,1 C 0,1 UV-I 0,0 C 51 % 71 % 0 % 1019,6 hPa 0,0 l/m 0,0 km/h (0 Bft) 0 min 0,0 km/h (0 Bft)
26.06.2010 01:23 23,5 C 16,1 C 0,1 UV-I 0,0 C 51 % 72 % 0 % 1019,6 hPa 0,0 l/m 0,0 km/h (0 Bft) 0 min 0,0 km/h (0 Bft)
26.06.2010 01:28 23,5 C 15,9 C 0,1 UV-I 0,0 C 51 % 72 % 0 % 1019,6 hPa 0,0 l/m 0,0 km/h (0 Bft) 0 min 0,0 km/h (0 Bft)
26.06.2010 01:33 23,4 C 15,8 C 0,0 UV-I 0,0 C 51 % 73 % 0 % 1019,4 hPa 0,0 l/m 0,0 km/h (0 Bft) 0 min 0,0 km/h (0 Bft)
26.06.2010 01:38 23,4 C 15,7 C 0,1 UV-I 0,0 C 51 % 73 % 0 % 1019,4 hPa 0,0 l/m 0,0 km/h (0 Bft) 0 min 0,0 km/h (0 Bft)
26.06.2010 01:43 23,4 C 15,7 C 0,1 UV-I 0,0 C 51 % 73 % 0 % 1019,4 hPa 0,0 l/m 0,0 km/h (0 Bft) 0 min 0,0 km/h (0 Bft)
26.06.2010 01:48 23,4 C 15,6 C 0,1 UV-I 0,0 C 51 % 74 % 0 % 1019,4 hPa 0,0 l/m 0,0 km/h (0 Bft) 0 min 0,0 km/h (0 Bft)
26.06.2010 01:53 23,4 C 15,5 C 0,1 UV-I 0,0 C 51 % 74 % 0 % 1019,5 hPa 0,0 l/m 0,0 km/h (0 Bft) 0 min 0,0 km/h (0 Bft)
26.06.2010 01:58 23,2 C 15,5 C 0,1 UV-I 0,0 C 51 % 74 % 0 % 1019,5 hPa 0,0 l/m 0,0 km/h (0 Bft) 0 min 0,0 km/h (0 Bft)
26.06.2010 02:03 23,2 C 15,3 C 0,1 UV-I 0,0 C 51 % 75 % 0 % 1019,5 hPa 0,0 l/m 0,0 km/h (0 Bft) 0 min 0,0 km/h (0 Bft)
26.06.2010 02:08 23,2 C 15,2 C 0,1 UV-I 0,0 C 51 % 75 % 0 % 1019,5 hPa 0,0 l/m 0,0 km/h (0 Bft) 0 min 0,0 km/h (0 Bft)
26.06.2010 02:13 23,3 C 15,2 C 0,1 UV-I 0,0 C 51 % 75 % 0 % 1019,7 hPa 0,0 l/m 0,0 km/h (0 Bft) 0 min 0,0 km/h (0 Bft)
26.06.2010 02:18 23,3 C 15,1 C 0,1 UV-I 0,0 C 51 % 76 % 0 % 1019,7 hPa 0,0 l/m 0,0 km/h (0 Bft) 0 min 0,0 km/h (0 Bft)
26.06.2010 02:23 23,2 C 15,1 C 0,1 UV-I 0,0 C 51 % 76 % 0 % 1019,7 hPa 0,0 l/m 0,0 km/h (0 Bft) 0 min 0,0 km/h (0 Bft)
26.06.2010 02:28 23,2 C 15,1 C 0,1 UV-I 0,0 C 51 % 76 % 0 % 1019,7 hPa 0,0 l/m 0,0 km/h (0 Bft) 0 min 0,0 km/h (0 Bft)
26.06.2010 02:33 23,2 C 15,1 C 0,1 UV-I 0,0 C 51 % 76 % 0 % 1019,9 hPa 0,0 l/m 0,0 km/h (0 Bft) 0 min 0,0 km/h (0 Bft)
26.06.2010 02:38 23,2 C 14,9 C 0,1 UV-I 0,0 C 51 % 76 % 0 % 1019,9 hPa 0,0 l/m 0,0 km/h (0 Bft) 0 min 0,0 km/h (0 Bft)
26.06.2010 02:43 23,2 C 14,9 C 0,1 UV-I 0,0 C 51 % 76 % 0 % 1019,9 hPa 0,0 l/m 0,0 km/h (0 Bft) 0 min 0,0 km/h (0 Bft)
26.06.2010 02:48 23,2 C 14,7 C 0,1 UV-I 0,0 C 51 % 77 % 0 % 1019,9 hPa 0,0 l/m 0,0 km/h (0 Bft) 0 min 0,0 km/h (0 Bft)
26.06.2010 02:53 23,2 C 14,7 C 0,1 UV-I 0,0 C 51 % 77 % 0 % 1019,6 hPa 0,0 l/m 0,0 km/h (0 Bft) 0 min 0,0 km/h (0 Bft)
26.06.2010 02:58 23,1 C 14,7 C 0,1 UV-I 0,0 C 51 % 77 % 0 % 1019,6 hPa 0,0 l/m 0,0 km/h (0 Bft) 0 min 0,0 km/h (0 Bft)
26.06.2010 03:03 23,1 C 14,7 C 0,1 UV-I 0,0 C 51 % 77 % 0 % 1019,6 hPa 0,0 l/m 0,0 km/h (0 Bft) 0 min 0,0 km/h (0 Bft)
26.06.2010 03:08 23,1 C 14,5 C 0,1 UV-I 0,0 C 51 % 78 % 0 % 1019,6 hPa 0,0 l/m 0,0 km/h (0 Bft) 0 min 0,0 km/h (0 Bft)
26.06.2010 03:13 23,1 C 14,5 C 0,1 UV-I 0,0 C 52 % 78 % 0 % 1019,6 hPa 0,0 l/m 0,0 km/h (0 Bft) 0 min 0,0 km/h (0 Bft)
26.06.2010 03:18 23,0 C 14,5 C 0,1 UV-I 0,0 C 51 % 78 % 0 % 1019,6 hPa 0,0 l/m 0,0 km/h (0 Bft) 0 min 0,0 km/h (0 Bft)
26.06.2010 03:23 23,0 C 14,4 C 0,1 UV-I 0,0 C 52 % 78 % 0 % 1019,6 hPa 0,0 l/m 0,0 km/h (0 Bft) 0 min 0,0 km/h (0 Bft)
26.06.2010 03:28 23,0 C 14,3 C 0,1 UV-I 0,0 C 52 % 78 % 0 % 1019,6 hPa 0,0 l/m 0,0 km/h (0 Bft) 0 min 0,0 km/h (0 Bft)
26.06.2010 03:33 23,0 C 14,3 C 0,1 UV-I 0,0 C 52 % 79 % 0 % 1019,4 hPa 0,0 l/m 0,0 km/h (0 Bft) 0 min 0,0 km/h (0 Bft)
26.06.2010 03:38 23,0 C 14,1 C 0,1 UV-I 0,0 C 52 % 79 % 0 % 1019,4 hPa 0,0 l/m 0,0 km/h (0 Bft) 0 min 0,0 km/h (0 Bft)
26.06.2010 03:43 23,0 C 14,0 C 0,1 UV-I 0,0 C 52 % 79 % 0 % 1019,4 hPa 0,0 l/m 0,0 km/h (0 Bft) 0 min 0,0 km/h (0 Bft)
26.06.2010 03:48 23,0 C 14,0 C 0,1 UV-I 0,0 C 52 % 79 % 0 % 1019,4 hPa 0,0 l/m 0,0 km/h (0 Bft) 0 min 0,0 km/h (0 Bft)
26.06.2010 03:53 22,9 C 13,9 C 0,1 UV-I 0,0 C 52 % 79 % 0 % 1019,3 hPa 0,0 l/m 0,0 km/h (0 Bft) 0 min 0,0 km/h (0 Bft)
26.06.2010 03:58 22,9 C 13,8 C 0,1 UV-I 0,0 C 52 % 79 % 0 % 1019,3 hPa 0,0 l/m 0,0 km/h (0 Bft) 0 min 0,0 km/h (0 Bft)
26.06.2010 04:03 22,9 C 13,9 C 0,1 UV-I 0,0 C 52 % 80 % 0 % 1019,3 hPa 0,0 l/m 0,0 km/h (0 Bft) 0 min 0,0 km/h (0 Bft)
26.06.2010 04:08 22,9 C 13,7 C 0,1 UV-I 0,0 C 52 % 80 % 0 % 1019,3 hPa 0,0 l/m 0,0 km/h (0 Bft) 0 min 0,0 km/h (0 Bft)
26.06.2010 04:13 22,9 C 13,7 C 0,1 UV-I 0,0 C 52 % 80 % 0 % 1019,3 hPa 0,0 l/m 0,0 km/h (0 Bft) 0 min 0,0 km/h (0 Bft)
26.06.2010 04:18 22,8 C 13,6 C 0,1 UV-I 0,0 C 52 % 80 % 0 % 1019,3 hPa 0,0 l/m 0,0 km/h (0 Bft) 0 min 0,0 km/h (0 Bft)
26.06.2010 04:20 22,8 C 13,6 C 0,1 UV-I 0,0 C 52 % 80 % 0 % 1019,3 hPa 0,0 l/m 0,0 km/h (0 Bft) 0 min 0,0 km/h (0 Bft)
26.06.2010 04:22 22,8 C 13,6 C 0,1 UV-I 0,0 C 52 % 80 % 0 % 1019,3 hPa 0,0 l/m 0,0 km/h (0 Bft) 0 min 0,0 km/h (0 Bft)
26.06.2010 04:24 22,8 C 13,6 C 0,1 UV-I 0,0 C 52 % 80 % 0 % 1019,3 hPa 0,0 l/m 0,0 km/h (0 Bft) 0 min 0,0 km/h (0 Bft)
26.06.2010 04:26 22,8 C 13,5 C 0,1 UV-I 0,0 C 52 % 80 % 0 % 1019,3 hPa 0,0 l/m 0,0 km/h (0 Bft) 0 min 0,0 km/h (0 Bft)
26.06.2010 04:28 22,8 C 13,5 C 0,1 UV-I 0,0 C 52 % 80 % 0 % 1019,3 hPa 0,0 l/m 0,0 km/h (0 Bft) 0 min 0,0 km/h (0 Bft)
26.06.2010 04:30 22,8 C 13,4 C 0,1 UV-I 0,0 C 52 % 80 % 0 % 1019,3 hPa 0,0 l/m 0,0 km/h (0 Bft) 0 min 0,0 km/h (0 Bft)
26.06.2010 04:32 22,8 C 13,4 C 0,1 UV-I 0,0 C 52 % 80 % 0 % 1019,4 hPa 0,0 l/m 0,0 km/h (0 Bft) 0 min 0,0 km/h (0 Bft)
26.06.2010 04:34 22,8 C 13,5 C 0,1 UV-I 0,0 C 52 % 81 % 0 % 1019,4 hPa 0,0 l/m 0,0 km/h (0 Bft) 0 min 0,0 km/h (0 Bft)
26.06.2010 04:36 22,8 C 13,5 C 0,1 UV-I 0,0 C 52 % 81 % 0 % 1019,4 hPa 0,0 l/m 0,0 km/h (0 Bft) 0 min 0,0 km/h (0 Bft)
26.06.2010 04:38 22,8 C 13,5 C 0,1 UV-I 0,0 C 52 % 81 % 0 % 1019,4 hPa 0,0 l/m 0,0 km/h (0 Bft) 0 min 0,0 km/h (0 Bft)
26.06.2010 04:40 22,8 C 13,5 C 0,1 UV-I 0,0 C 52 % 81 % 0 % 1019,4 hPa 0,0 l/m 0,0 km/h (0 Bft) 0 min 0,0 km/h (0 Bft)
26.06.2010 04:42 22,8 C 13,3 C 0,1 UV-I 0,0 C 52 % 81 % 0 % 1019,4 hPa 0,0 l/m 0,0 km/h (0 Bft) 0 min 0,0 km/h (0 Bft)
26.06.2010 04:44 22,8 C 13,3 C 0,1 UV-I 0,0 C 52 % 81 % 0 % 1019,4 hPa 0,0 l/m 0,0 km/h (0 Bft) 0 min 0,0 km/h (0 Bft)
26.06.2010 04:46 22,8 C 13,3 C 0,1 UV-I 0,0 C 52 % 81 % 0 % 1019,4 hPa 0,0 l/m 0,0 km/h (0 Bft) 0 min 0,0 km/h (0 Bft)
26.06.2010 04:48 22,8 C 13,3 C 0,1 UV-I 0,0 C 52 % 81 % 0 % 1019,4 hPa 0,0 l/m 0,0 km/h (0 Bft) 0 min 0,0 km/h (0 Bft)
26.06.2010 04:50 22,8 C 13,3 C 0,1 UV-I 0,0 C 52 % 81 % 0 % 1019,4 hPa 0,0 l/m 0,0 km/h (0 Bft) 0 min 0,0 km/h (0 Bft)
26.06.2010 04:52 22,8 C 13,2 C 0,1 UV-I 0,0 C 52 % 81 % 0 % 1019,6 hPa 0,0 l/m 0,0 km/h (0 Bft) 0 min 0,0 km/h (0 Bft)
26.06.2010 04:54 22,8 C 13,2 C 0,1 UV-I 0,0 C 52 % 81 % 0 % 1019,6 hPa 0,0 l/m 0,0 km/h (0 Bft) 0 min 0,0 km/h (0 Bft)
26.06.2010 04:56 22,8 C 13,2 C 0,1 UV-I 0,0 C 52 % 81 % 0 % 1019,6 hPa 0,0 l/m 0,0 km/h (0 Bft) 0 min 0,0 km/h (0 Bft)
26.06.2010 04:58 22,7 C 13,2 C 0,1 UV-I 0,0 C 52 % 81 % 0 % 1019,6 hPa 0,0 l/m 0,0 km/h (0 Bft) 0 min 0,0 km/h (0 Bft)
26.06.2010 05:00 22,7 C 13,2 C 0,1 UV-I 0,0 C 52 % 82 % 0 % 1019,6 hPa 0,0 l/m 0,0 km/h (0 Bft) 0 min 0,0 km/h (0 Bft)
26.06.2010 05:02 22,7 C 13,2 C 0,1 UV-I 0,0 C 52 % 82 % 0 % 1019,6 hPa 0,0 l/m 0,0 km/h (0 Bft) 0 min 0,0 km/h (0 Bft)
26.06.2010 05:04 22,7 C 13,2 C 0,1 UV-I 0,0 C 52 % 82 % 0 % 1019,6 hPa 0,0 l/m 0,0 km/h (0 Bft) 0 min 0,0 km/h (0 Bft)
26.06.2010 05:06 22,7 C 13,2 C 0,1 UV-I 0,0 C 52 % 82 % 0 % 1019,6 hPa 0,0 l/m 0,0 km/h (0 Bft) 0 min 0,0 km/h (0 Bft)
26.06.2010 05:08 22,7 C 13,1 C 0,1 UV-I 0,0 C 52 % 82 % 0 % 1019,6 hPa 0,0 l/m 0,0 km/h (0 Bft) 0 min 0,0 km/h (0 Bft)
26.06.2010 05:10 22,7 C 13,1 C 0,1 UV-I 0,0 C 52 % 82 % 0 % 1019,6 hPa 0,0 l/m 0,0 km/h (0 Bft) 0 min 0,0 km/h (0 Bft)
26.06.2010 05:12 22,7 C 13,1 C 0,1 UV-I 0,0 C 52 % 82 % 0 % 1019,6 hPa 0,0 l/m 0,0 km/h (0 Bft) 0 min 0,0 km/h (0 Bft)
26.06.2010 05:14 22,7 C 13,1 C 0,1 UV-I 0,0 C 52 % 82 % 0 % 1019,6 hPa 0,0 l/m 0,0 km/h (0 Bft) 0 min 0,0 km/h (0 Bft)
26.06.2010 05:16 22,7 C 13,1 C 0,1 UV-I 0,0 C 52 % 82 % 0 % 1019,6 hPa 0,0 l/m 0,0 km/h (0 Bft) 0 min 0,0 km/h (0 Bft)
26.06.2010 05:18 22,7 C 13,0 C 0,1 UV-I 0,0 C 52 % 82 % 0 % 1019,6 hPa 0,0 l/m 0,0 km/h (0 Bft) 0 min 0,0 km/h (0 Bft)
26.06.2010 05:20 22,7 C 13,0 C 0,1 UV-I 0,0 C 52 % 82 % 0 % 1019,6 hPa 0,0 l/m 0,0 km/h (0 Bft) 0 min 0,0 km/h (0 Bft)
26.06.2010 05:22 22,6 C 13,0 C 0,1 UV-I 0,0 C 52 % 82 % 0 % 1019,6 hPa 0,0 l/m 0,0 km/h (0 Bft) 0 min 0,0 km/h (0 Bft)
26.06.2010 05:24 22,6 C 13,0 C 0,1 UV-I 0,0 C 52 % 82 % 0 % 1019,6 hPa 0,0 l/m 0,0 km/h (0 Bft) 0 min 0,0 km/h (0 Bft)
26.06.2010 05:26 22,6 C 12,9 C 0,1 UV-I 0,0 C 52 % 82 % 0 % 1019,6 hPa 0,0 l/m 0,0 km/h (0 Bft) 0 min 0,0 km/h (0 Bft)
26.06.2010 05:28 22,6 C 12,9 C 0,2 UV-I 0,0 C 52 % 82 % 0 % 1019,6 hPa 0,0 l/m 0,0 km/h (0 Bft) 0 min 0,0 km/h (0 Bft)
26.06.2010 05:30 22,6 C 12,8 C 0,2 UV-I 0,0 C 52 % 82 % 0 % 1019,6 hPa 0,0 l/m 0,0 km/h (0 Bft) 0 min 0,0 km/h (0 Bft)
26.06.2010 05:32 22,6 C 12,8 C 0,2 UV-I 0,0 C 52 % 82 % 0 % 1019,7 hPa 0,0 l/m 0,0 km/h (0 Bft) 0 min 0,0 km/h (0 Bft)
26.06.2010 05:34 22,6 C 12,9 C 0,2 UV-I 0,0 C 52 % 83 % 0 % 1019,7 hPa 0,0 l/m 0,0 km/h (0 Bft) 0 min 0,0 km/h (0 Bft)
26.06.2010 05:36 22,6 C 12,8 C 0,2 UV-I 0,0 C 52 % 83 % 0 % 1019,7 hPa 0,0 l/m 0,0 km/h (0 Bft) 0 min 0,0 km/h (0 Bft)
26.06.2010 05:38 22,6 C 12,8 C 0,2 UV-I 0,0 C 52 % 83 % 0 % 1019,7 hPa 0,0 l/m 0,0 km/h (0 Bft) 0 min 0,0 km/h (0 Bft)
26.06.2010 05:40 22,5 C 12,7 C 0,2 UV-I 0,0 C 52 % 83 % 0 % 1019,7 hPa 0,0 l/m 0,0 km/h (0 Bft) 0 min 0,0 km/h (0 Bft)
26.06.2010 05:42 22,5 C 12,7 C 0,2 UV-I 0,0 C 52 % 83 % 0 % 1019,7 hPa 0,0 l/m 0,0 km/h (0 Bft) 0 min 0,0 km/h (0 Bft)
26.06.2010 05:44 22,5 C 12,7 C 0,2 UV-I 0,0 C 52 % 83 % 0 % 1019,7 hPa 0,0 l/m 0,0 km/h (0 Bft) 0 min 0,0 km/h (0 Bft)
26.06.2010 05:48 22,4 C 12,7 C 0,3 UV-I 0,0 C 52 % 83 % 0 % 1019,7 hPa 0,0 l/m 0,0 km/h (0 Bft) 0 min 0,0 km/h (0 Bft)
26.06.2010 05:50 22,4 C 12,7 C 0,3 UV-I 0,0 C 52 % 83 % 0 % 1019,7 hPa 0,0 l/m 0,0 km/h (0 Bft) 0 min 0,0 km/h (0 Bft)
26.06.2010 05:52 22,4 C 12,6 C 0,4 UV-I 0,0 C 53 % 83 % 0 % 1019,8 hPa 0,0 l/m 0,0 km/h (0 Bft) 0 min 0,0 km/h (0 Bft)
26.06.2010 05:54 22,5 C 12,7 C 0,4 UV-I 0,0 C 53 % 83 % 0 % 1019,8 hPa 0,0 l/m 0,0 km/h (0 Bft) 0 min 0,0 km/h (0 Bft)
26.06.2010 05:56 22,4 C 12,6 C 0,4 UV-I 0,0 C 53 % 83 % 0 % 1019,8 hPa 0,0 l/m 0,0 km/h (0 Bft) 0 min 0,0 km/h (0 Bft)
26.06.2010 05:58 22,4 C 12,7 C 0,4 UV-I 0,0 C 53 % 83 % 0 % 1019,8 hPa 0,0 l/m 0,0 km/h (0 Bft) 0 min 0,0 km/h (0 Bft)
26.06.2010 06:00 22,4 C 12,7 C 0,4 UV-I 0,0 C 53 % 84 % 0 % 1019,8 hPa 0,0 l/m 0,0 km/h (0 Bft) 0 min 0,0 km/h (0 Bft)
26.06.2010 06:02 22,4 C 12,7 C 0,4 UV-I 0,0 C 53 % 84 % 0 % 1019,8 hPa 0,0 l/m 0,0 km/h (0 Bft) 0 min 0,0 km/h (0 Bft)
26.06.2010 06:04 22,4 C 12,7 C 0,4 UV-I 0,0 C 53 % 84 % 0 % 1019,8 hPa 0,0 l/m 0,0 km/h (0 Bft) 0 min 0,0 km/h (0 Bft)
26.06.2010 06:06 22,4 C 12,7 C 0,4 UV-I 0,0 C 53 % 84 % 0 % 1019,8 hPa 0,0 l/m 0,0 km/h (0 Bft) 0 min 0,0 km/h (0 Bft)
26.06.2010 06:08 22,4 C 12,7 C 0,5 UV-I 0,0 C 53 % 84 % 0 % 1019,8 hPa 0,0 l/m 0,0 km/h (0 Bft) 0 min 0,0 km/h (0 Bft)
26.06.2010 06:10 22,4 C 12,7 C 0,5 UV-I 0,0 C 53 % 84 % 0 % 1019,8 hPa 0,0 l/m 0,0 km/h (0 Bft) 0 min 0,0 km/h (0 Bft)
26.06.2010 06:12 22,4 C 12,6 C 0,6 UV-I 0,0 C 53 % 84 % 0 % 1019,8 hPa 0,0 l/m 0,0 km/h (0 Bft) 0 min 0,0 km/h (0 Bft)
26.06.2010 06:14 22,4 C 12,6 C 0,6 UV-I 0,0 C 53 % 84 % 0 % 1019,8 hPa 0,0 l/m 0,0 km/h (0 Bft) 0 min 0,0 km/h (0 Bft)
26.06.2010 06:16 22,4 C 12,6 C 0,6 UV-I 0,0 C 53 % 84 % 0 % 1019,8 hPa 0,0 l/m 0,0 km/h (0 Bft) 0 min 0,0 km/h (0 Bft)
26.06.2010 06:18 22,4 C 12,7 C 0,7 UV-I 0,0 C 53 % 84 % 0 % 1019,8 hPa 0,0 l/m 0,0 km/h (0 Bft) 0 min 0,0 km/h (0 Bft)
26.06.2010 06:20 22,4 C 12,6 C 0,7 UV-I 0,0 C 53 % 84 % 0 % 1019,8 hPa 0,0 l/m 0,0 km/h (0 Bft) 0 min 0,0 km/h (0 Bft)
26.06.2010 06:24 22,4 C 12,7 C 0,8 UV-I 0,0 C 53 % 84 % 0 % 1019,8 hPa 0,0 l/m 0,0 km/h (0 Bft) 0 min 0,0 km/h (0 Bft)
26.06.2010 06:26 22,4 C 12,6 C 0,8 UV-I 0,0 C 53 % 84 % 0 % 1019,8 hPa 0,0 l/m 0,0 km/h (0 Bft) 0 min 0,0 km/h (0 Bft)
26.06.2010 06:28 22,4 C 12,7 C 0,9 UV-I 0,0 C 53 % 84 % 0 % 1019,8 hPa 0,0 l/m 0,0 km/h (0 Bft) 0 min 0,0 km/h (0 Bft)
26.06.2010 06:30 22,4 C 12,7 C 0,9 UV-I 0,0 C 53 % 84 % 0 % 1019,8 hPa 0,0 l/m 0,0 km/h (0 Bft) 0 min 0,0 km/h (0 Bft)
26.06.2010 06:32 22,2 C 12,7 C 1,0 UV-I 0,0 C 53 % 84 % 0 % 1019,5 hPa 0,0 l/m 0,0 km/h (0 Bft) 0 min 0,0 km/h (0 Bft)
26.06.2010 06:34 22,2 C 12,8 C 1,0 UV-I 0,0 C 53 % 84 % 0 % 1019,5 hPa 0,0 l/m 0,0 km/h (0 Bft) 0 min 0,0 km/h (0 Bft)
26.06.2010 06:36 22,2 C 12,8 C 1,0 UV-I 0,0 C 53 % 84 % 0 % 1019,5 hPa 0,0 l/m 0,0 km/h (0 Bft) 0 min 0,0 km/h (0 Bft)
26.06.2010 06:38 22,2 C 12,9 C 1,1 UV-I 0,0 C 53 % 84 % 0 % 1019,5 hPa 0,0 l/m 0,0 km/h (0 Bft) 0 min 0,0 km/h (0 Bft)
26.06.2010 06:40 22,2 C 13,0 C 1,1 UV-I 0,0 C 53 % 84 % 0 % 1019,5 hPa 0,0 l/m 0,0 km/h (0 Bft) 0 min 0,0 km/h (0 Bft)
26.06.2010 06:42 22,2 C 13,1 C 1,2 UV-I 0,0 C 53 % 84 % 0 % 1019,5 hPa 0,0 l/m 0,0 km/h (0 Bft) 0 min 0,0 km/h (0 Bft)
26.06.2010 06:46 22,2 C 13,2 C 1,2 UV-I 0,0 C 53 % 84 % 0 % 1019,5 hPa 0,0 l/m 0,4 km/h (0 Bft) 0 min 0,0 km/h (0 Bft)
26.06.2010 06:48 22,2 C 13,2 C 1,3 UV-I 0,0 C 53 % 84 % 0 % 1019,5 hPa 0,0 l/m 0,4 km/h (0 Bft) 0 min 0,0 km/h (0 Bft)
26.06.2010 06:50 22,2 C 13,3 C 1,3 UV-I 0,0 C 53 % 84 % 0 % 1019,5 hPa 0,0 l/m 0,4 km/h (0 Bft) 0 min 0,0 km/h (0 Bft)
26.06.2010 06:52 22,2 C 13,3 C 1,4 UV-I 0,0 C 53 % 84 % 0 % 1019,5 hPa 0,0 l/m 0,0 km/h (0 Bft) 0 min 0,0 km/h (0 Bft)
26.06.2010 06:54 22,3 C 13,3 C 1,4 UV-I 0,0 C 53 % 84 % 0 % 1019,5 hPa 0,0 l/m 0,0 km/h (0 Bft) 0 min 0,0 km/h (0 Bft)
26.06.2010 06:56 22,3 C 13,5 C 1,4 UV-I 0,0 C 53 % 83 % 0 % 1019,5 hPa 0,0 l/m 0,0 km/h (0 Bft) 0 min 0,0 km/h (0 Bft)
26.06.2010 06:58 22,3 C 13,5 C 1,4 UV-I 0,0 C 53 % 83 % 0 % 1019,5 hPa 0,0 l/m 0,0 km/h (0 Bft) 0 min 0,0 km/h (0 Bft)
26.06.2010 07:00 22,3 C 13,7 C 1,4 UV-I 0,0 C 53 % 83 % 0 % 1019,5 hPa 0,0 l/m 0,4 km/h (0 Bft) 0 min 4,2 km/h (1 Bft)
26.06.2010 07:02 22,3 C 13,7 C 1,6 UV-I 0,0 C 53 % 83 % 0 % 1019,5 hPa 0,0 l/m 0,4 km/h (0 Bft) 0 min 0,0 km/h (0 Bft)
26.06.2010 07:06 22,3 C 13,9 C 1,6 UV-I 0,0 C 53 % 83 % 0 % 1019,5 hPa 0,0 l/m 0,8 km/h (0 Bft) 0 min 0,0 km/h (0 Bft)
26.06.2010 07:08 22,2 C 14,0 C 1,7 UV-I 0,0 C 53 % 83 % 0 % 1019,5 hPa 0,0 l/m 0,8 km/h (0 Bft) 0 min 0,0 km/h (0 Bft)
26.06.2010 07:10 22,2 C 14,1 C 1,7 UV-I 0,0 C 53 % 82 % 0 % 1019,5 hPa 0,0 l/m 0,8 km/h (0 Bft) 0 min 0,0 km/h (0 Bft)
26.06.2010 07:12 22,3 C 14,1 C 1,8 UV-I 0,0 C 53 % 82 % 0 % 1019,4 hPa 0,0 l/m 0,8 km/h (0 Bft) 0 min 4,2 km/h (1 Bft)
26.06.2010 07:14 22,3 C 14,2 C 1,8 UV-I 0,0 C 53 % 82 % 0 % 1019,4 hPa 0,0 l/m 1,6 km/h (1 Bft) 0 min 3,9 km/h (1 Bft)
26.06.2010 07:16 22,3 C 14,4 C 1,8 UV-I 0,0 C 53 % 81 % 0 % 1019,4 hPa 0,0 l/m 1,6 km/h (1 Bft) 0 min 0,0 km/h (0 Bft)
26.06.2010 07:18 22,3 C 14,5 C 1,9 UV-I 0,0 C 53 % 81 % 0 % 1019,4 hPa 0,0 l/m 1,6 km/h (1 Bft) 0 min 0,0 km/h (0 Bft)
26.06.2010 07:22 22,3 C 14,6 C 2,0 UV-I 0,0 C 53 % 81 % 0 % 1019,4 hPa 0,0 l/m 1,2 km/h (1 Bft) 0 min 5,8 km/h (2 Bft)
26.06.2010 07:24 22,3 C 14,7 C 2,0 UV-I 0,0 C 53 % 81 % 0 % 1019,4 hPa 0,0 l/m 0,8 km/h (0 Bft) 0 min 0,0 km/h (0 Bft)
26.06.2010 07:26 22,3 C 14,8 C 2,0 UV-I 0,0 C 53 % 81 % 0 % 1019,4 hPa 0,0 l/m 0,0 km/h (0 Bft) 0 min 0,0 km/h (0 Bft)
26.06.2010 07:28 22,2 C 14,9 C 2,1 UV-I 0,0 C 53 % 80 % 0 % 1019,4 hPa 0,0 l/m 0,0 km/h (0 Bft) 0 min 0,0 km/h (0 Bft)
26.06.2010 07:30 22,2 C 14,8 C 2,1 UV-I 0,0 C 53 % 80 % 0 % 1019,4 hPa 0,0 l/m 0,0 km/h (0 Bft) 0 min 0,0 km/h (0 Bft)
26.06.2010 07:32 22,2 C 15,0 C 2,3 UV-I 0,0 C 53 % 80 % 0 % 1019,9 hPa 0,0 l/m 0,0 km/h (0 Bft) 0 min 0,0 km/h (0 Bft)
26.06.2010 07:34 22,2 C 15,1 C 2,3 UV-I 0,0 C 53 % 80 % 0 % 1019,9 hPa 0,0 l/m 0,0 km/h (0 Bft) 0 min 0,0 km/h (0 Bft)
26.06.2010 07:36 22,2 C 15,2 C 2,3 UV-I 0,0 C 53 % 80 % 0 % 1019,9 hPa 0,0 l/m 0,0 km/h (0 Bft) 0 min 0,0 km/h (0 Bft)
26.06.2010 07:38 22,4 C 15,2 C 2,4 UV-I 0,0 C 53 % 80 % 0 % 1019,9 hPa 0,0 l/m 0,0 km/h (0 Bft) 0 min 0,0 km/h (0 Bft)
26.06.2010 07:42 22,4 C 15,5 C 2,5 UV-I 0,0 C 53 % 79 % 0 % 1019,9 hPa 0,0 l/m 0,4 km/h (0 Bft) 0 min 0,0 km/h (0 Bft)
26.06.2010 07:44 22,4 C 15,6 C 2,5 UV-I 0,0 C 53 % 78 % 0 % 1019,9 hPa 0,0 l/m 0,4 km/h (0 Bft) 0 min 0,0 km/h (0 Bft)
26.06.2010 07:46 22,4 C 15,7 C 2,5 UV-I 0,0 C 53 % 78 % 0 % 1019,9 hPa 0,0 l/m 0,4 km/h (0 Bft) 0 min 0,0 km/h (0 Bft)
26.06.2010 07:48 22,4 C 15,9 C 2,7 UV-I 0,0 C 53 % 77 % 0 % 1019,9 hPa 0,0 l/m 0,8 km/h (0 Bft) 0 min 0,0 km/h (0 Bft)
26.06.2010 07:50 22,4 C 15,9 C 2,7 UV-I 0,0 C 53 % 77 % 0 % 1019,9 hPa 0,0 l/m 0,8 km/h (0 Bft) 0 min 0,0 km/h (0 Bft)
26.06.2010 07:52 22,4 C 16,0 C 2,8 UV-I 0,0 C 53 % 77 % 0 % 1019,7 hPa 0,0 l/m 0,4 km/h (0 Bft) 0 min 0,0 km/h (0 Bft)
26.06.2010 07:54 22,4 C 16,1 C 2,8 UV-I 0,0 C 53 % 77 % 0 % 1019,7 hPa 0,0 l/m 0,4 km/h (0 Bft) 0 min 3,5 km/h (1 Bft)
26.06.2010 07:56 22,4 C 16,3 C 2,8 UV-I 0,0 C 53 % 76 % 0 % 1019,7 hPa 0,0 l/m 0,8 km/h (0 Bft) 0 min 5,5 km/h (1 Bft)
26.06.2010 08:00 22,4 C 16,4 C 2,9 UV-I 0,1 C 53 % 75 % 3 % 1019,7 hPa 0,0 l/m 1,6 km/h (1 Bft) 0 min 8,0 km/h (2 Bft)
26.06.2010 08:02 22,4 C 16,4 C 3,1 UV-I 0,2 C 53 % 74 % 6 % 1019,7 hPa 0,0 l/m 2,0 km/h (1 Bft) 0 min 0,0 km/h (0 Bft)
26.06.2010 08:04 22,4 C 16,7 C 3,1 UV-I 0,0 C 53 % 75 % 0 % 1019,7 hPa 0,0 l/m 2,0 km/h (1 Bft) 0 min 0,0 km/h (0 Bft)
26.06.2010 08:06 22,4 C 16,7 C 3,1 UV-I 0,1 C 53 % 74 % 3 % 1019,7 hPa 0,0 l/m 2,0 km/h (1 Bft) 0 min 0,0 km/h (0 Bft)
26.06.2010 08:08 22,4 C 16,8 C 3,2 UV-I 0,5 C 53 % 74 % 14 % 1019,7 hPa 0,0 l/m 1,2 km/h (1 Bft) 0 min 0,0 km/h (0 Bft)
26.06.2010 08:10 22,4 C 16,8 C 3,2 UV-I 0,5 C 53 % 74 % 14 % 1019,7 hPa 0,0 l/m 1,2 km/h (1 Bft) 0 min 0,0 km/h (0 Bft)
26.06.2010 08:14 22,4 C 16,9 C 3,4 UV-I 3,5 C 53 % 73 % 100 % 1019,9 hPa 0,0 l/m 1,2 km/h (1 Bft) 2 min 6,1 km/h (2 Bft)
26.06.2010 08:16 22,4 C 17,1 C 3,4 UV-I 3,8 C 53 % 73 % 100 % 1019,9 hPa 0,0 l/m 1,6 km/h (1 Bft) 2 min 0,0 km/h (0 Bft)
26.06.2010 08:18 22,4 C 17,1 C 3,5 UV-I 4,6 C 53 % 73 % 100 % 1019,9 hPa 0,0 l/m 1,6 km/h (1 Bft) 2 min 4,2 km/h (1 Bft)
26.06.2010 08:22 22,5 C 17,2 C 3,6 UV-I 5,4 C 53 % 72 % 100 % 1019,9 hPa 0,0 l/m 1,6 km/h (1 Bft) 2 min 0,0 km/h (0 Bft)
26.06.2010 08:24 22,5 C 17,3 C 3,6 UV-I 5,7 C 53 % 72 % 100 % 1019,9 hPa 0,0 l/m 2,0 km/h (1 Bft) 2 min 3,9 km/h (1 Bft)
26.06.2010 08:26 22,5 C 17,4 C 3,6 UV-I 6,0 C 53 % 72 % 100 % 1019,9 hPa 0,0 l/m 1,2 km/h (1 Bft) 2 min 4,8 km/h (1 Bft)
26.06.2010 08:28 22,5 C 17,5 C 3,7 UV-I 6,3 C 53 % 72 % 100 % 1019,9 hPa 0,0 l/m 1,2 km/h (1 Bft) 2 min 0,0 km/h (0 Bft)
26.06.2010 08:30 22,5 C 17,5 C 3,7 UV-I 6,3 C 53 % 72 % 100 % 1019,9 hPa 0,0 l/m 1,2 km/h (1 Bft) 2 min 0,0 km/h (0 Bft)
26.06.2010 08:32 22,6 C 17,7 C 4,6 UV-I 6,6 C 53 % 72 % 100 % 1020,1 hPa 0,0 l/m 1,2 km/h (1 Bft) 2 min 0,0 km/h (0 Bft)
26.06.2010 08:34 22,6 C 17,9 C 4,6 UV-I 6,8 C 53 % 72 % 100 % 1020,1 hPa 0,0 l/m 1,2 km/h (1 Bft) 2 min 0,0 km/h (0 Bft)
26.06.2010 08:36 22,6 C 18,0 C 4,6 UV-I 7,0 C 53 % 71 % 100 % 1020,1 hPa 0,0 l/m 0,8 km/h (0 Bft) 2 min 0,0 km/h (0 Bft)
26.06.2010 08:38 22,6 C 18,1 C 5,1 UV-I 7,3 C 53 % 71 % 100 % 1020,1 hPa 0,0 l/m 0,8 km/h (0 Bft) 2 min 0,0 km/h (0 Bft)
26.06.2010 08:40 22,6 C 18,3 C 5,1 UV-I 7,5 C 53 % 70 % 100 % 1020,1 hPa 0,0 l/m 0,8 km/h (0 Bft) 2 min 8,7 km/h (2 Bft)
26.06.2010 08:42 22,6 C 18,5 C 5,5 UV-I 7,3 C 53 % 70 % 100 % 1020,1 hPa 0,0 l/m 0,4 km/h (0 Bft) 2 min 0,0 km/h (0 Bft)
26.06.2010 08:44 22,6 C 18,5 C 5,5 UV-I 7,6 C 53 % 70 % 100 % 1020,1 hPa 0,0 l/m 0,8 km/h (0 Bft) 2 min 3,2 km/h (1 Bft)
26.06.2010 08:46 22,6 C 18,6 C 5,5 UV-I 7,6 C 53 % 69 % 100 % 1020,1 hPa 0,0 l/m 0,8 km/h (0 Bft) 2 min 0,0 km/h (0 Bft)
26.06.2010 08:48 22,6 C 18,9 C 5,9 UV-I 7,3 C 53 % 69 % 100 % 1020,1 hPa 0,0 l/m 0,8 km/h (0 Bft) 2 min 0,0 km/h (0 Bft)
26.06.2010 08:50 22,6 C 18,9 C 5,9 UV-I 7,3 C 53 % 68 % 100 % 1020,1 hPa 0,0 l/m 0,8 km/h (0 Bft) 2 min 0,0 km/h (0 Bft)
26.06.2010 08:52 22,6 C 19,1 C 5,9 UV-I 7,3 C 53 % 68 % 100 % 1020,2 hPa 0,0 l/m 0,8 km/h (0 Bft) 2 min 0,0 km/h (0 Bft)
26.06.2010 08:56 22,6 C 19,3 C 5,9 UV-I 7,5 C 53 % 67 % 100 % 1020,2 hPa 0,0 l/m 0,8 km/h (0 Bft) 2 min 0,0 km/h (0 Bft)
26.06.2010 08:58 22,6 C 19,4 C 7,3 UV-I 7,7 C 53 % 66 % 100 % 1020,2 hPa 0,0 l/m 0,8 km/h (0 Bft) 2 min 0,0 km/h (0 Bft)
26.06.2010 09:00 22,6 C 19,4 C 7,3 UV-I 7,8 C 53 % 66 % 100 % 1020,2 hPa 0,0 l/m 1,2 km/h (1 Bft) 2 min 4,2 km/h (1 Bft)
26.06.2010 09:02 22,6 C 19,5 C 8,2 UV-I 7,7 C 53 % 66 % 100 % 1020,2 hPa 0,0 l/m 0,8 km/h (0 Bft) 2 min 0,0 km/h (0 Bft)
26.06.2010 09:04 22,7 C 19,6 C 8,2 UV-I 7,7 C 53 % 65 % 100 % 1020,2 hPa 0,0 l/m 0,8 km/h (0 Bft) 2 min 0,0 km/h (0 Bft)
26.06.2010 09:06 22,7 C 19,7 C 8,2 UV-I 7,6 C 53 % 65 % 100 % 1020,2 hPa 0,0 l/m 1,2 km/h (1 Bft) 2 min 0,0 km/h (0 Bft)
26.06.2010 09:08 22,7 C 19,9 C 9,2 UV-I 7,5 C 53 % 64 % 100 % 1020,2 hPa 0,0 l/m 1,6 km/h (1 Bft) 2 min 7,4 km/h (2 Bft)
26.06.2010 09:10 22,7 C 20,0 C 9,2 UV-I 7,4 C 53 % 62 % 100 % 1020,2 hPa 0,0 l/m 1,6 km/h (1 Bft) 2 min 7,4 km/h (2 Bft)
26.06.2010 09:12 22,7 C 20,1 C 10,1 UV-I 7,0 C 53 % 62 % 100 % 1020,3 hPa 0,0 l/m 2,4 km/h (1 Bft) 2 min 5,8 km/h (2 Bft)
26.06.2010 09:16 22,7 C 20,3 C 10,1 UV-I 6,8 C 53 % 63 % 100 % 1020,3 hPa 0,0 l/m 2,8 km/h (1 Bft) 2 min 5,5 km/h (1 Bft)
26.06.2010 09:18 22,8 C 20,5 C 10,8 UV-I 6,7 C 53 % 63 % 100 % 1020,3 hPa 0,0 l/m 2,8 km/h (1 Bft) 2 min 0,0 km/h (0 Bft)
26.06.2010 09:20 22,7 C 20,5 C 10,8 UV-I 6,9 C 53 % 63 % 100 % 1020,3 hPa 0,0 l/m 2,4 km/h (1 Bft) 2 min 4,2 km/h (1 Bft)
26.06.2010 09:22 22,7 C 20,7 C 11,8 UV-I 6,9 C 53 % 62 % 100 % 1020,3 hPa 0,0 l/m 2,0 km/h (1 Bft) 2 min 5,8 km/h (2 Bft)
26.06.2010 09:24 22,8 C 20,8 C 11,8 UV-I 6,9 C 53 % 62 % 100 % 1020,3 hPa 0,0 l/m 2,0 km/h (1 Bft) 2 min 0,0 km/h (0 Bft)
26.06.2010 09:26 22,7 C 20,8 C 11,8 UV-I 7,1 C 53 % 62 % 100 % 1020,3 hPa 0,0 l/m 1,6 km/h (1 Bft) 2 min 0,0 km/h (0 Bft)
26.06.2010 09:28 22,8 C 20,9 C 12,6 UV-I 7,3 C 53 % 62 % 100 % 1020,3 hPa 0,0 l/m 1,2 km/h (1 Bft) 2 min 0,0 km/h (0 Bft)
26.06.2010 09:30 22,8 C 21,0 C 12,6 UV-I 7,2 C 53 % 62 % 100 % 1020,3 hPa 0,0 l/m 1,2 km/h (1 Bft) 2 min 0,0 km/h (0 Bft)
26.06.2010 09:34 22,8 C 21,3 C 13,4 UV-I 7,2 C 53 % 60 % 100 % 1020,4 hPa 0,0 l/m 2,0 km/h (1 Bft) 2 min 3,9 km/h (1 Bft)
26.06.2010 09:36 22,8 C 21,3 C 13,4 UV-I 7,0 C 53 % 60 % 100 % 1020,4 hPa 0,0 l/m 2,0 km/h (1 Bft) 2 min 0,0 km/h (0 Bft)
26.06.2010 09:38 22,8 C 21,4 C 13,9 UV-I 7,0 C 53 % 60 % 100 % 1020,4 hPa 0,0 l/m 2,0 km/h (1 Bft) 2 min 4,5 km/h (1 Bft)
26.06.2010 09:40 22,8 C 21,4 C 13,9 UV-I 7,2 C 53 % 60 % 100 % 1020,4 hPa 0,0 l/m 2,0 km/h (1 Bft) 2 min 9,7 km/h (2 Bft)
26.06.2010 09:42 22,8 C 21,6 C 14,6 UV-I 7,2 C 53 % 60 % 100 % 1020,4 hPa 0,0 l/m 3,2 km/h (1 Bft) 2 min 5,5 km/h (1 Bft)
26.06.2010 09:44 22,8 C 21,7 C 14,6 UV-I 7,0 C 53 % 59 % 100 % 1020,4 hPa 0,0 l/m 3,6 km/h (1 Bft) 2 min 8,7 km/h (2 Bft)
26.06.2010 09:46 22,8 C 21,9 C 14,6 UV-I 6,6 C 53 % 58 % 100 % 1020,4 hPa 0,0 l/m 4,0 km/h (1 Bft) 2 min 5,8 km/h (2 Bft)
26.06.2010 09:48 22,8 C 21,9 C 15,0 UV-I 6,6 C 53 % 59 % 100 % 1020,4 hPa 0,0 l/m 4,0 km/h (1 Bft) 2 min 3,2 km/h (1 Bft)
26.06.2010 09:50 22,8 C 21,9 C 15,0 UV-I 6,6 C 53 % 59 % 100 % 1020,4 hPa 0,0 l/m 4,0 km/h (1 Bft) 2 min 3,2 km/h (1 Bft)
26.06.2010 09:52 22,8 C 22,0 C 14,3 UV-I 6,7 C 53 % 58 % 100 % 1020,4 hPa 0,0 l/m 4,0 km/h (1 Bft) 2 min 3,9 km/h (1 Bft)
26.06.2010 09:56 22,9 C 22,0 C 14,3 UV-I 6,5 C 53 % 57 % 100 % 1020,4 hPa 0,0 l/m 2,8 km/h (1 Bft) 2 min 7,7 km/h (2 Bft)
26.06.2010 09:58 22,8 C 22,1 C 14,1 UV-I 6,5 C 53 % 58 % 100 % 1020,4 hPa 0,0 l/m 2,0 km/h (1 Bft) 2 min 0,0 km/h (0 Bft)
26.06.2010 10:00 22,8 C 22,3 C 14,1 UV-I 6,4 C 53 % 56 % 100 % 1020,4 hPa 0,0 l/m 2,0 km/h (1 Bft) 2 min 12,2 km/h (2 Bft)
26.06.2010 10:02 22,8 C 22,2 C 15,0 UV-I 6,4 C 53 % 55 % 100 % 1020,4 hPa 0,0 l/m 2,4 km/h (1 Bft) 2 min 4,8 km/h (1 Bft)
26.06.2010 10:04 22,9 C 22,3 C 15,0 UV-I 6,1 C 53 % 55 % 100 % 1020,4 hPa 0,0 l/m 3,2 km/h (1 Bft) 2 min 0,0 km/h (0 Bft)
26.06.2010 10:06 22,9 C 22,4 C 15,0 UV-I 6,0 C 53 % 56 % 100 % 1020,4 hPa 0,0 l/m 2,8 km/h (1 Bft) 2 min 5,1 km/h (1 Bft)
26.06.2010 10:10 22,9 C 22,4 C 15,3 UV-I 6,2 C 53 % 54 % 100 % 1020,4 hPa 0,0 l/m 4,0 km/h (1 Bft) 2 min 10,0 km/h (2 Bft)
26.06.2010 10:12 22,9 C 22,5 C 15,5 UV-I 6,1 C 52 % 54 % 100 % 1020,4 hPa 0,0 l/m 5,2 km/h (1 Bft) 2 min 11,9 km/h (2 Bft)
26.06.2010 10:14 22,9 C 22,5 C 15,5 UV-I 6,1 C 52 % 54 % 100 % 1020,4 hPa 0,0 l/m 4,4 km/h (1 Bft) 2 min 0,0 km/h (0 Bft)
26.06.2010 10:16 22,9 C 22,7 C 15,5 UV-I 6,1 C 52 % 54 % 100 % 1020,4 hPa 0,0 l/m 4,4 km/h (1 Bft) 2 min 6,8 km/h (2 Bft)
26.06.2010 10:18 22,9 C 22,6 C 15,6 UV-I 6,4 C 52 % 52 % 100 % 1020,4 hPa 0,0 l/m 4,0 km/h (1 Bft) 2 min 3,9 km/h (1 Bft)
26.06.2010 10:20 23,0 C 22,7 C 15,6 UV-I 6,6 C 52 % 52 % 100 % 1020,4 hPa 0,0 l/m 3,6 km/h (1 Bft) 2 min 9,7 km/h (2 Bft)
26.06.2010 10:22 23,0 C 22,9 C 15,6 UV-I 6,6 C 52 % 51 % 100 % 1020,4 hPa 0,0 l/m 4,4 km/h (1 Bft) 2 min 13,8 km/h (3 Bft)
26.06.2010 10:24 23,0 C 22,8 C 15,6 UV-I 6,6 C 52 % 51 % 100 % 1020,4 hPa 0,0 l/m 4,0 km/h (1 Bft) 2 min 6,8 km/h (2 Bft)
26.06.2010 10:26 23,0 C 22,9 C 15,6 UV-I 6,6 C 52 % 51 % 100 % 1020,4 hPa 0,0 l/m 4,8 km/h (1 Bft) 2 min 7,1 km/h (2 Bft)
26.06.2010 10:28 23,0 C 23,0 C 15,5 UV-I 6,6 C 52 % 51 % 100 % 1020,4 hPa 0,0 l/m 4,4 km/h (1 Bft) 2 min 0,0 km/h (0 Bft)
26.06.2010 10:32 23,0 C 23,2 C 15,7 UV-I 7,0 C 52 % 50 % 100 % 1020,3 hPa 0,0 l/m 3,6 km/h (1 Bft) 2 min 13,8 km/h (3 Bft)
26.06.2010 10:34 23,0 C 23,2 C 15,7 UV-I 7,1 C 52 % 50 % 100 % 1020,3 hPa 0,0 l/m 2,8 km/h (1 Bft) 2 min 4,2 km/h (1 Bft)
26.06.2010 10:36 23,0 C 23,4 C 15,7 UV-I 7,0 C 52 % 49 % 100 % 1020,3 hPa 0,0 l/m 2,4 km/h (1 Bft) 2 min 7,1 km/h (2 Bft)
26.06.2010 10:38 23,0 C 23,5 C 15,8 UV-I 7,1 C 52 % 49 % 100 % 1020,3 hPa 0,0 l/m 2,8 km/h (1 Bft) 2 min 6,8 km/h (2 Bft)
26.06.2010 10:40 23,0 C 23,5 C 15,8 UV-I 7,1 C 52 % 49 % 100 % 1020,3 hPa 0,0 l/m 3,6 km/h (1 Bft) 2 min 9,7 km/h (2 Bft)
26.06.2010 10:42 23,0 C 23,3 C 15,8 UV-I 7,2 C 52 % 49 % 100 % 1020,3 hPa 0,0 l/m 4,8 km/h (1 Bft) 2 min 8,4 km/h (2 Bft)
26.06.2010 10:46 23,0 C 23,2 C 15,8 UV-I 7,0 C 52 % 49 % 100 % 1020,3 hPa 0,0 l/m 5,6 km/h (1 Bft) 2 min 13,5 km/h (3 Bft)
26.06.2010 10:48 23,0 C 23,3 C 15,5 UV-I 6,7 C 52 % 48 % 100 % 1020,3 hPa 0,0 l/m 6,4 km/h (2 Bft) 2 min 0,0 km/h (0 Bft)
26.06.2010 10:50 23,0 C 23,4 C 15,5 UV-I 6,6 C 52 % 49 % 100 % 1020,3 hPa 0,0 l/m 6,4 km/h (2 Bft) 2 min 0,0 km/h (0 Bft)
26.06.2010 10:54 23,0 C 23,6 C 15,1 UV-I 6,8 C 52 % 48 % 100 % 1020,5 hPa 0,0 l/m 5,2 km/h (1 Bft) 2 min 8,7 km/h (2 Bft)
26.06.2010 10:56 23,1 C 23,6 C 15,1 UV-I 6,9 C 52 % 47 % 100 % 1020,5 hPa 0,0 l/m 5,2 km/h (1 Bft) 2 min 7,1 km/h (2 Bft)
26.06.2010 10:58 23,0 C 23,6 C 14,7 UV-I 6,7 C 52 % 47 % 100 % 1020,5 hPa 0,0 l/m 4,4 km/h (1 Bft) 2 min 0,0 km/h (0 Bft)
26.06.2010 11:02 23,1 C 23,7 C 14,6 UV-I 6,8 C 52 % 47 % 100 % 1020,5 hPa 0,0 l/m 6,4 km/h (2 Bft) 2 min 14,5 km/h (3 Bft)
26.06.2010 11:06 23,1 C 23,9 C 14,6 UV-I 6,5 C 52 % 47 % 100 % 1020,5 hPa 0,0 l/m 6,8 km/h (2 Bft) 2 min 12,9 km/h (3 Bft)
26.06.2010 11:08 23,1 C 24,0 C 14,4 UV-I 6,1 C 52 % 46 % 100 % 1020,5 hPa 0,0 l/m 6,8 km/h (2 Bft) 2 min 8,4 km/h (2 Bft)
26.06.2010 11:10 23,1 C 23,9 C 14,4 UV-I 6,2 C 52 % 47 % 100 % 1020,5 hPa 0,0 l/m 6,8 km/h (2 Bft) 2 min 8,4 km/h (2 Bft)
26.06.2010 11:12 23,1 C 23,9 C 12,9 UV-I 5,4 C 52 % 46 % 100 % 1020,2 hPa 0,0 l/m 6,8 km/h (2 Bft) 2 min 4,5 km/h (1 Bft)
26.06.2010 11:14 23,1 C 23,9 C 12,9 UV-I 4,9 C 52 % 46 % 100 % 1020,2 hPa 0,0 l/m 6,0 km/h (2 Bft) 2 min 9,7 km/h (2 Bft)
26.06.2010 11:16 23,1 C 23,9 C 12,9 UV-I 4,8 C 52 % 47 % 100 % 1020,2 hPa 0,0 l/m 5,2 km/h (1 Bft) 2 min 0,0 km/h (0 Bft)
26.06.2010 11:18 23,2 C 23,9 C 13,0 UV-I 5,2 C 52 % 46 % 100 % 1020,2 hPa 0,0 l/m 4,8 km/h (1 Bft) 2 min 0,0 km/h (0 Bft)
26.06.2010 11:20 23,2 C 24,0 C 13,0 UV-I 5,4 C 52 % 46 % 100 % 1020,2 hPa 0,0 l/m 4,8 km/h (1 Bft) 2 min 10,6 km/h (2 Bft)
26.06.2010 11:22 23,2 C 24,1 C 13,9 UV-I 5,5 C 52 % 46 % 100 % 1020,2 hPa 0,0 l/m 4,4 km/h (1 Bft) 2 min 5,1 km/h (1 Bft)
26.06.2010 11:26 23,2 C 24,1 C 13,9 UV-I 6,0 C 52 % 45 % 100 % 1020,2 hPa 0,0 l/m 5,6 km/h (1 Bft) 2 min 14,8 km/h (3 Bft)
26.06.2010 11:28 23,2 C 24,1 C 13,5 UV-I 6,1 C 52 % 45 % 100 % 1020,2 hPa 0,0 l/m 6,8 km/h (2 Bft) 2 min 6,1 km/h (2 Bft)
26.06.2010 11:30 23,2 C 24,0 C 13,5 UV-I 6,2 C 52 % 45 % 100 % 1020,2 hPa 0,0 l/m 6,8 km/h (2 Bft) 2 min 14,8 km/h (3 Bft)
26.06.2010 11:32 23,2 C 24,1 C 13,3 UV-I 6,2 C 51 % 45 % 100 % 1020,4 hPa 0,0 l/m 6,8 km/h (2 Bft) 2 min 14,2 km/h (3 Bft)
26.06.2010 11:34 23,2 C 24,1 C 13,3 UV-I 6,3 C 52 % 45 % 100 % 1020,4 hPa 0,0 l/m 7,2 km/h (2 Bft) 2 min 7,7 km/h (2 Bft)
26.06.2010 11:36 23,2 C 24,1 C 13,3 UV-I 6,1 C 51 % 45 % 100 % 1020,4 hPa 0,0 l/m 6,8 km/h (2 Bft) 2 min 0,0 km/h (0 Bft)
26.06.2010 11:38 23,2 C 24,1 C 13,3 UV-I 6,2 C 51 % 45 % 100 % 1020,4 hPa 0,0 l/m 6,8 km/h (2 Bft) 2 min 9,0 km/h (2 Bft)
26.06.2010 11:40 23,2 C 24,3 C 13,3 UV-I 6,2 C 51 % 46 % 100 % 1020,4 hPa 0,0 l/m 5,6 km/h (1 Bft) 2 min 0,0 km/h (0 Bft)
26.06.2010 11:42 23,2 C 24,4 C 12,2 UV-I 6,4 C 51 % 44 % 100 % 1020,4 hPa 0,0 l/m 5,2 km/h (1 Bft) 2 min 0,0 km/h (0 Bft)
26.06.2010 11:44 23,2 C 24,4 C 12,2 UV-I 6,7 C 51 % 44 % 100 % 1020,4 hPa 0,0 l/m 4,8 km/h (1 Bft) 2 min 10,0 km/h (2 Bft)
26.06.2010 11:46 23,2 C 24,4 C 12,2 UV-I 6,8 C 51 % 44 % 100 % 1020,4 hPa 0,0 l/m 4,0 km/h (1 Bft) 2 min 3,9 km/h (1 Bft)
26.06.2010 11:48 23,2 C 24,5 C 11,6 UV-I 6,7 C 51 % 44 % 100 % 1020,4 hPa 0,0 l/m 5,2 km/h (1 Bft) 2 min 9,3 km/h (2 Bft)
26.06.2010 11:52 23,3 C 24,5 C 11,4 UV-I 6,4 C 51 % 44 % 100 % 1020,2 hPa 0,0 l/m 6,8 km/h (2 Bft) 2 min 20,6 km/h (4 Bft)
26.06.2010 11:54 23,3 C 24,4 C 11,4 UV-I 6,3 C 51 % 43 % 100 % 1020,2 hPa 0,0 l/m 8,4 km/h (2 Bft) 2 min 12,6 km/h (3 Bft)
26.06.2010 11:56 23,3 C 24,4 C 11,4 UV-I 6,0 C 51 % 43 % 100 % 1020,2 hPa 0,0 l/m 9,6 km/h (2 Bft) 2 min 12,9 km/h (3 Bft)
26.06.2010 11:58 23,3 C 24,2 C 10,6 UV-I 5,8 C 51 % 44 % 100 % 1020,2 hPa 0,0 l/m 9,6 km/h (2 Bft) 2 min 4,8 km/h (1 Bft)
26.06.2010 12:00 23,2 C 24,2 C 10,6 UV-I 5,7 C 51 % 45 % 100 % 1020,2 hPa 0,0 l/m 8,8 km/h (2 Bft) 2 min 7,7 km/h (2 Bft)
26.06.2010 12:04 23,2 C 24,3 C 10,2 UV-I 5,8 C 51 % 45 % 100 % 1020,2 hPa 0,0 l/m 7,6 km/h (2 Bft) 2 min 7,1 km/h (2 Bft)
26.06.2010 12:06 23,4 C 24,5 C 10,2 UV-I 5,8 C 51 % 45 % 100 % 1020,2 hPa 0,0 l/m 6,4 km/h (2 Bft) 2 min 11,6 km/h (2 Bft)
26.06.2010 12:08 23,4 C 24,7 C 10,6 UV-I 5,7 C 51 % 45 % 100 % 1020,2 hPa 0,0 l/m 5,2 km/h (1 Bft) 2 min 11,3 km/h (2 Bft)
26.06.2010 12:10 23,4 C 24,8 C 10,6 UV-I 5,6 C 51 % 43 % 100 % 1020,2 hPa 0,0 l/m 5,2 km/h (1 Bft) 2 min 11,3 km/h (2 Bft)
26.06.2010 12:16 23,4 C 24,9 C 10,4 UV-I 5,8 C 51 % 43 % 100 % 1020,3 hPa 0,0 l/m 6,0 km/h (2 Bft) 2 min 7,4 km/h (2 Bft)
26.06.2010 12:18 23,4 C 24,9 C 10,4 UV-I 5,8 C 51 % 43 % 100 % 1020,3 hPa 0,0 l/m 6,0 km/h (2 Bft) 2 min 13,8 km/h (3 Bft)
26.06.2010 12:22 23,4 C 24,7 C 8,9 UV-I 5,8 C 51 % 42 % 100 % 1020,3 hPa 0,0 l/m 7,2 km/h (2 Bft) 2 min 15,4 km/h (3 Bft)
26.06.2010 12:26 23,5 C 24,6 C 8,9 UV-I 4,8 C 51 % 42 % 100 % 1020,3 hPa 0,0 l/m 6,8 km/h (2 Bft) 2 min 4,2 km/h (1 Bft)
26.06.2010 12:30 23,4 C 24,9 C 9,5 UV-I 4,7 C 51 % 42 % 100 % 1020,3 hPa 0,0 l/m 6,0 km/h (2 Bft) 2 min 4,2 km/h (1 Bft)
26.06.2010 12:32 23,5 C 24,8 C 8,8 UV-I 5,1 C 51 % 42 % 100 % 1020,6 hPa 0,0 l/m 4,8 km/h (1 Bft) 2 min 10,6 km/h (2 Bft)
26.06.2010 12:34 23,5 C 24,7 C 8,8 UV-I 4,9 C 50 % 42 % 100 % 1020,6 hPa 0,0 l/m 4,8 km/h (1 Bft) 2 min 7,7 km/h (2 Bft)
26.06.2010 12:36 23,5 C 24,7 C 8,8 UV-I 4,8 C 50 % 42 % 100 % 1020,6 hPa 0,0 l/m 6,0 km/h (2 Bft) 2 min 17,7 km/h (3 Bft)
26.06.2010 12:38 23,5 C 24,7 C 9,6 UV-I 4,9 C 50 % 43 % 100 % 1020,6 hPa 0,0 l/m 7,2 km/h (2 Bft) 2 min 4,5 km/h (1 Bft)
26.06.2010 12:40 23,6 C 25,0 C 9,6 UV-I 4,8 C 50 % 42 % 100 % 1020,6 hPa 0,0 l/m 7,6 km/h (2 Bft) 2 min 5,5 km/h (1 Bft)
26.06.2010 12:42 23,6 C 25,1 C 9,9 UV-I 5,0 C 50 % 41 % 100 % 1020,6 hPa 0,0 l/m 8,0 km/h (2 Bft) 2 min 6,8 km/h (2 Bft)
26.06.2010 12:44 23,6 C 25,1 C 9,9 UV-I 5,2 C 50 % 41 % 100 % 1020,6 hPa 0,0 l/m 8,0 km/h (2 Bft) 2 min 7,1 km/h (2 Bft)
26.06.2010 12:46 23,6 C 25,1 C 9,9 UV-I 5,3 C 50 % 43 % 100 % 1020,6 hPa 0,0 l/m 6,8 km/h (2 Bft) 2 min 0,0 km/h (0 Bft)
26.06.2010 12:48 23,6 C 25,0 C 9,8 UV-I 5,7 C 50 % 42 % 100 % 1020,6 hPa 0,0 l/m 5,2 km/h (1 Bft) 2 min 16,7 km/h (3 Bft)
26.06.2010 12:50 23,6 C 25,1 C 9,8 UV-I 5,6 C 50 % 41 % 100 % 1020,6 hPa 0,0 l/m 5,2 km/h (1 Bft) 2 min 16,7 km/h (3 Bft)
26.06.2010 12:52 23,6 C 25,2 C 9,9 UV-I 5,7 C 50 % 42 % 100 % 1020,5 hPa 0,0 l/m 5,6 km/h (1 Bft) 2 min 6,1 km/h (2 Bft)
26.06.2010 12:54 23,6 C 25,2 C 9,9 UV-I 5,7 C 50 % 41 % 100 % 1020,5 hPa 0,0 l/m 5,2 km/h (1 Bft) 2 min 5,5 km/h (1 Bft)
26.06.2010 12:56 23,6 C 25,3 C 9,9 UV-I 5,6 C 50 % 40 % 100 % 1020,5 hPa 0,0 l/m 5,2 km/h (1 Bft) 2 min 3,9 km/h (1 Bft)
26.06.2010 12:58 23,6 C 25,4 C 9,7 UV-I 5,5 C 50 % 41 % 100 % 1020,5 hPa 0,0 l/m 5,2 km/h (1 Bft) 2 min 5,1 km/h (1 Bft)
26.06.2010 13:02 23,7 C 25,3 C 9,6 UV-I 5,7 C 50 % 40 % 100 % 1020,5 hPa 0,0 l/m 6,4 km/h (2 Bft) 2 min 14,2 km/h (3 Bft)
26.06.2010 13:04 23,7 C 25,3 C 9,6 UV-I 5,6 C 50 % 41 % 100 % 1020,5 hPa 0,0 l/m 6,8 km/h (2 Bft) 2 min 6,4 km/h (2 Bft)
26.06.2010 13:06 23,7 C 25,3 C 9,6 UV-I 5,5 C 50 % 40 % 100 % 1020,5 hPa 0,0 l/m 8,4 km/h (2 Bft) 2 min 12,2 km/h (2 Bft)
26.06.2010 13:08 23,7 C 25,2 C 9,8 UV-I 5,4 C 50 % 41 % 100 % 1020,5 hPa 0,0 l/m 8,8 km/h (2 Bft) 2 min 0,0 km/h (0 Bft)
26.06.2010 13:10 23,7 C 25,3 C 9,8 UV-I 5,3 C 50 % 41 % 100 % 1020,5 hPa 0,0 l/m 8,8 km/h (2 Bft) 2 min 0,0 km/h (0 Bft)
26.06.2010 13:12 23,7 C 25,5 C 9,9 UV-I 5,0 C 50 % 40 % 100 % 1020,8 hPa 0,0 l/m 9,2 km/h (2 Bft) 2 min 3,2 km/h (1 Bft)
26.06.2010 13:14 23,8 C 25,6 C 9,9 UV-I 5,1 C 50 % 40 % 100 % 1020,8 hPa 0,0 l/m 7,6 km/h (2 Bft) 2 min 8,4 km/h (2 Bft)
26.06.2010 13:16 23,8 C 25,7 C 9,9 UV-I 4,9 C 50 % 40 % 100 % 1020,8 hPa 0,0 l/m 7,2 km/h (2 Bft) 2 min 12,9 km/h (3 Bft)
26.06.2010 13:20 23,8 C 25,9 C 9,7 UV-I 4,4 C 50 % 39 % 100 % 1020,8 hPa 0,0 l/m 7,6 km/h (2 Bft) 2 min 7,7 km/h (2 Bft)
26.06.2010 13:24 23,8 C 26,0 C 10,1 UV-I 4,2 C 49 % 39 % 100 % 1020,8 hPa 0,0 l/m 8,0 km/h (2 Bft) 2 min 9,0 km/h (2 Bft)
26.06.2010 13:26 23,8 C 26,1 C 10,1 UV-I 4,4 C 49 % 39 % 100 % 1020,8 hPa 0,0 l/m 6,8 km/h (2 Bft) 2 min 0,0 km/h (0 Bft)
26.06.2010 13:28 23,9 C 26,2 C 10,0 UV-I 4,6 C 49 % 39 % 100 % 1020,8 hPa 0,0 l/m 6,0 km/h (2 Bft) 2 min 6,1 km/h (2 Bft)
26.06.2010 13:30 23,9 C 26,3 C 10,0 UV-I 4,5 C 49 % 38 % 100 % 1020,8 hPa 0,0 l/m 6,0 km/h (2 Bft) 2 min 6,1 km/h (2 Bft)
26.06.2010 13:32 23,9 C 26,3 C 10,2 UV-I 5,0 C 49 % 38 % 100 % 1020,4 hPa 0,0 l/m 4,0 km/h (1 Bft) 2 min 0,0 km/h (0 Bft)
26.06.2010 13:34 23,9 C 26,3 C 10,2 UV-I 5,1 C 49 % 40 % 100 % 1020,4 hPa 0,0 l/m 3,6 km/h (1 Bft) 2 min 11,6 km/h (2 Bft)
26.06.2010 13:38 24,0 C 26,7 C 10,0 UV-I 4,9 C 49 % 38 % 100 % 1020,4 hPa 0,0 l/m 4,4 km/h (1 Bft) 2 min 6,4 km/h (2 Bft)
26.06.2010 13:40 24,0 C 26,6 C 10,0 UV-I 5,1 C 49 % 38 % 100 % 1020,4 hPa 0,0 l/m 5,2 km/h (1 Bft) 2 min 14,5 km/h (3 Bft)
26.06.2010 13:42 24,0 C 26,5 C 10,0 UV-I 5,4 C 49 % 39 % 100 % 1020,4 hPa 0,0 l/m 4,8 km/h (1 Bft) 2 min 0,0 km/h (0 Bft)
26.06.2010 13:44 24,0 C 26,4 C 10,0 UV-I 5,5 C 49 % 40 % 100 % 1020,4 hPa 0,0 l/m 6,0 km/h (2 Bft) 2 min 10,3 km/h (2 Bft)
26.06.2010 13:46 24,0 C 26,5 C 10,0 UV-I 5,5 C 49 % 38 % 100 % 1020,4 hPa 0,0 l/m 6,4 km/h (2 Bft) 2 min 7,4 km/h (2 Bft)
26.06.2010 13:48 24,1 C 26,2 C 9,9 UV-I 5,7 C 49 % 39 % 100 % 1020,4 hPa 0,0 l/m 7,6 km/h (2 Bft) 2 min 9,7 km/h (2 Bft)
26.06.2010 13:50 24,1 C 26,0 C 9,9 UV-I 5,9 C 49 % 39 % 100 % 1020,4 hPa 0,0 l/m 7,6 km/h (2 Bft) 2 min 9,7 km/h (2 Bft)
26.06.2010 13:54 24,1 C 26,0 C 9,3 UV-I 5,1 C 49 % 40 % 100 % 1020,4 hPa 0,0 l/m 7,2 km/h (2 Bft) 2 min 5,1 km/h (1 Bft)
26.06.2010 13:58 24,2 C 26,3 C 9,6 UV-I 4,9 C 49 % 40 % 100 % 1020,4 hPa 0,0 l/m 7,2 km/h (2 Bft) 2 min 13,5 km/h (3 Bft)
26.06.2010 14:00 24,2 C 26,3 C 9,6 UV-I 5,0 C 49 % 39 % 100 % 1020,4 hPa 0,0 l/m 7,2 km/h (2 Bft) 2 min 6,4 km/h (2 Bft)
26.06.2010 14:02 24,2 C 26,4 C 10,2 UV-I 4,9 C 49 % 39 % 100 % 1020,4 hPa 0,0 l/m 8,0 km/h (2 Bft) 2 min 7,7 km/h (2 Bft)
26.06.2010 14:04 24,3 C 26,5 C 10,2 UV-I 4,9 C 49 % 39 % 100 % 1020,4 hPa 0,0 l/m 7,6 km/h (2 Bft) 2 min 3,2 km/h (1 Bft)
26.06.2010 14:06 24,2 C 26,6 C 10,2 UV-I 4,9 C 49 % 39 % 100 % 1020,4 hPa 0,0 l/m 8,0 km/h (2 Bft) 2 min 8,0 km/h (2 Bft)
26.06.2010 14:08 24,2 C 26,7 C 10,1 UV-I 4,8 C 48 % 38 % 100 % 1020,4 hPa 0,0 l/m 7,6 km/h (2 Bft) 2 min 6,1 km/h (2 Bft)
26.06.2010 14:10 24,2 C 26,9 C 10,1 UV-I 4,6 C 48 % 38 % 100 % 1020,4 hPa 0,0 l/m 7,6 km/h (2 Bft) 2 min 6,1 km/h (2 Bft)
26.06.2010 14:16 24,4 C 27,0 C 10,1 UV-I 5,0 C 48 % 37 % 100 % 1020,5 hPa 0,0 l/m 4,0 km/h (1 Bft) 2 min 5,1 km/h (1 Bft)
26.06.2010 14:18 24,5 C 27,1 C 10,1 UV-I 5,2 C 48 % 38 % 100 % 1020,5 hPa 0,0 l/m 3,2 km/h (1 Bft) 2 min 5,5 km/h (1 Bft)
26.06.2010 14:20 24,5 C 27,1 C 10,1 UV-I 5,4 C 48 % 39 % 100 % 1020,5 hPa 0,0 l/m 3,2 km/h (1 Bft) 2 min 6,4 km/h (2 Bft)
26.06.2010 14:22 24,6 C 27,0 C 10,1 UV-I 5,6 C 48 % 38 % 100 % 1020,5 hPa 0,0 l/m 2,8 km/h (1 Bft) 2 min 7,7 km/h (2 Bft)
26.06.2010 14:24 24,6 C 27,1 C 10,1 UV-I 5,6 C 48 % 38 % 100 % 1020,5 hPa 0,0 l/m 3,6 km/h (1 Bft) 2 min 8,7 km/h (2 Bft)
26.06.2010 14:28 24,7 C 27,1 C 10,2 UV-I 5,2 C 48 % 38 % 100 % 1020,5 hPa 0,0 l/m 8,4 km/h (2 Bft) 2 min 19,6 km/h (3 Bft)
26.06.2010 14:30 24,7 C 27,1 C 10,2 UV-I 5,2 C 48 % 38 % 100 % 1020,5 hPa 0,0 l/m 8,4 km/h (2 Bft) 2 min 21,2 km/h (4 Bft)
26.06.2010 14:32 24,8 C 26,8 C 10,4 UV-I 5,1 C 48 % 38 % 100 % 1020,9 hPa 0,0 l/m 10,4 km/h (2 Bft) 2 min 3,9 km/h (1 Bft)
26.06.2010 14:34 24,9 C 26,8 C 10,4 UV-I 4,9 C 48 % 38 % 100 % 1020,9 hPa 0,0 l/m 10,0 km/h (2 Bft) 2 min 3,9 km/h (1 Bft)
26.06.2010 14:40 25,2 C 26,9 C 10,3 UV-I 5,0 C 47 % 39 % 100 % 1020,9 hPa 0,0 l/m 9,6 km/h (2 Bft) 2 min 14,8 km/h (3 Bft)
26.06.2010 14:42 25,2 C 27,0 C 10,0 UV-I 4,8 C 47 % 39 % 100 % 1020,9 hPa 0,0 l/m 8,4 km/h (2 Bft) 2 min 23,8 km/h (4 Bft)
26.06.2010 14:44 25,3 C 26,9 C 10,0 UV-I 5,0 C 47 % 37 % 100 % 1020,9 hPa 0,0 l/m 9,6 km/h (2 Bft) 2 min 7,7 km/h (2 Bft)
26.06.2010 14:46 25,4 C 26,9 C 10,0 UV-I 4,9 C 47 % 39 % 100 % 1020,9 hPa 0,0 l/m 8,8 km/h (2 Bft) 2 min 5,5 km/h (1 Bft)
26.06.2010 14:48 25,4 C 26,9 C 10,4 UV-I 5,0 C 47 % 38 % 100 % 1020,9 hPa 0,0 l/m 10,0 km/h (2 Bft) 2 min 19,0 km/h (3 Bft)
26.06.2010 14:50 25,4 C 26,9 C 10,4 UV-I 5,0 C 47 % 38 % 100 % 1020,9 hPa 0,0 l/m 10,0 km/h (2 Bft) 2 min 19,0 km/h (3 Bft)
26.06.2010 14:52 25,6 C 26,9 C 10,3 UV-I 5,0 C 46 % 38 % 100 % 1021,2 hPa 0,0 l/m 8,8 km/h (2 Bft) 2 min 6,8 km/h (2 Bft)
26.06.2010 14:58 25,7 C 26,8 C 9,7 UV-I 5,1 C 45 % 38 % 100 % 1021,2 hPa 0,0 l/m 7,6 km/h (2 Bft) 2 min 8,7 km/h (2 Bft)
26.06.2010 15:00 25,8 C 26,9 C 9,7 UV-I 5,0 C 46 % 38 % 100 % 1021,2 hPa 0,0 l/m 7,2 km/h (2 Bft) 2 min 9,0 km/h (2 Bft)
26.06.2010 15:04 25,9 C 27,1 C 10,2 UV-I 4,9 C 45 % 38 % 100 % 1021,2 hPa 0,0 l/m 6,0 km/h (2 Bft) 2 min 15,8 km/h (3 Bft)
26.06.2010 15:06 25,9 C 26,9 C 10,2 UV-I 5,1 C 45 % 37 % 100 % 1021,2 hPa 0,0 l/m 8,0 km/h (2 Bft) 2 min 6,1 km/h (2 Bft)
26.06.2010 15:08 26,0 C 26,8 C 10,0 UV-I 5,2 C 45 % 37 % 100 % 1021,2 hPa 0,0 l/m 8,0 km/h (2 Bft) 2 min 7,7 km/h (2 Bft)
26.06.2010 15:12 26,1 C 26,7 C 10,0 UV-I 5,3 C 45 % 38 % 100 % 1021,6 hPa 0,0 l/m 6,8 km/h (2 Bft) 2 min 0,0 km/h (0 Bft)
26.06.2010 15:20 26,2 C 27,1 C 10,1 UV-I 5,2 C 44 % 39 % 100 % 1021,6 hPa 0,0 l/m 5,2 km/h (1 Bft) 2 min 6,8 km/h (2 Bft)
26.06.2010 15:22 26,4 C 27,2 C 9,5 UV-I 5,0 C 44 % 38 % 100 % 1021,6 hPa 0,0 l/m 4,8 km/h (1 Bft) 2 min 0,0 km/h (0 Bft)
26.06.2010 15:24 26,4 C 27,3 C 9,5 UV-I 4,7 C 44 % 39 % 100 % 1021,6 hPa 0,0 l/m 4,8 km/h (1 Bft) 2 min 0,0 km/h (0 Bft)
26.06.2010 15:30 26,5 C 27,4 C 9,5 UV-I 4,7 C 44 % 37 % 100 % 1021,6 hPa 0,0 l/m 4,4 km/h (1 Bft) 2 min 12,9 km/h (3 Bft)
26.06.2010 15:34 26,7 C 27,3 C 10,1 UV-I 4,7 C 43 % 38 % 100 % 1022,2 hPa 0,0 l/m 7,6 km/h (2 Bft) 2 min 6,8 km/h (2 Bft)
26.06.2010 15:36 26,7 C 27,3 C 10,1 UV-I 4,7 C 43 % 38 % 100 % 1022,2 hPa 0,0 l/m 9,6 km/h (2 Bft) 2 min 9,7 km/h (2 Bft)
26.06.2010 15:40 26,8 C 27,1 C 10,2 UV-I 4,6 C 43 % 37 % 100 % 1022,2 hPa 0,0 l/m 10,8 km/h (2 Bft) 2 min 10,9 km/h (2 Bft)
26.06.2010 15:42 26,9 C 26,9 C 10,1 UV-I 4,6 C 43 % 37 % 100 % 1022,2 hPa 0,0 l/m 10,4 km/h (2 Bft) 2 min 9,7 km/h (2 Bft)
26.06.2010 15:44 27,0 C 26,8 C 10,1 UV-I 4,6 C 43 % 37 % 100 % 1022,2 hPa 0,0 l/m 11,6 km/h (2 Bft) 2 min 6,8 km/h (2 Bft)
26.06.2010 15:46 27,0 C 26,7 C 10,1 UV-I 4,7 C 43 % 38 % 100 % 1022,2 hPa 0,0 l/m 10,4 km/h (2 Bft) 2 min 0,0 km/h (0 Bft)
26.06.2010 15:48 27,0 C 26,8 C 10,1 UV-I 4,6 C 43 % 38 % 100 % 1022,2 hPa 0,0 l/m 8,4 km/h (2 Bft) 2 min 0,0 km/h (0 Bft)
26.06.2010 15:50 27,0 C 26,9 C 10,1 UV-I 4,5 C 43 % 37 % 100 % 1022,2 hPa 0,0 l/m 8,4 km/h (2 Bft) 2 min 0,0 km/h (0 Bft)
26.06.2010 15:52 27,2 C 27,1 C 10,1 UV-I 4,6 C 42 % 38 % 100 % 1022,8 hPa 0,0 l/m 6,8 km/h (2 Bft) 2 min 7,4 km/h (2 Bft)
26.06.2010 15:56 27,2 C 27,2 C 10,1 UV-I 4,6 C 42 % 37 % 100 % 1022,8 hPa 0,0 l/m 6,0 km/h (2 Bft) 2 min 5,1 km/h (1 Bft)
26.06.2010 15:58 27,2 C 27,3 C 10,2 UV-I 4,6 C 42 % 37 % 100 % 1022,8 hPa 0,0 l/m 7,2 km/h (2 Bft) 2 min 14,5 km/h (3 Bft)
26.06.2010 16:00 27,4 C 27,2 C 10,2 UV-I 4,8 C 42 % 38 % 100 % 1022,8 hPa 0,0 l/m 8,0 km/h (2 Bft) 2 min 9,7 km/h (2 Bft)
26.06.2010 16:02 27,4 C 27,2 C 10,4 UV-I 4,8 C 42 % 38 % 100 % 1022,8 hPa 0,0 l/m 6,4 km/h (2 Bft) 2 min 4,5 km/h (1 Bft)
26.06.2010 16:04 27,5 C 27,4 C 10,4 UV-I 4,8 C 42 % 38 % 100 % 1022,8 hPa 0,0 l/m 6,0 km/h (2 Bft) 2 min 9,0 km/h (2 Bft)
26.06.2010 16:06 27,5 C 27,5 C 10,4 UV-I 4,9 C 42 % 38 % 100 % 1022,8 hPa 0,0 l/m 6,4 km/h (2 Bft) 2 min 8,4 km/h (2 Bft)
26.06.2010 16:08 27,6 C 27,5 C 10,5 UV-I 5,1 C 42 % 37 % 100 % 1022,8 hPa 0,0 l/m 6,4 km/h (2 Bft) 2 min 4,8 km/h (1 Bft)
26.06.2010 16:10 27,6 C 27,6 C 10,5 UV-I 5,0 C 42 % 37 % 100 % 1022,8 hPa 0,0 l/m 6,4 km/h (2 Bft) 2 min 4,8 km/h (1 Bft)
26.06.2010 16:14 27,7 C 27,7 C 10,4 UV-I 5,0 C 41 % 36 % 100 % 1023,0 hPa 0,0 l/m 7,2 km/h (2 Bft) 2 min 17,7 km/h (3 Bft)
26.06.2010 16:20 27,8 C 27,5 C 10,3 UV-I 5,0 C 41 % 36 % 100 % 1023,0 hPa 0,0 l/m 8,4 km/h (2 Bft) 2 min 13,8 km/h (3 Bft)
26.06.2010 16:26 27,9 C 27,3 C 10,4 UV-I 4,9 C 41 % 36 % 100 % 1023,0 hPa 0,0 l/m 8,4 km/h (2 Bft) 2 min 11,6 km/h (2 Bft)
26.06.2010 16:28 28,0 C 27,3 C 10,5 UV-I 4,7 C 41 % 36 % 100 % 1023,0 hPa 0,0 l/m 9,6 km/h (2 Bft) 2 min 8,0 km/h (2 Bft)
26.06.2010 16:32 28,0 C 27,1 C 10,6 UV-I 4,6 C 41 % 37 % 100 % 1022,3 hPa 0,0 l/m 8,4 km/h (2 Bft) 2 min 8,0 km/h (2 Bft)
26.06.2010 16:38 28,1 C 27,4 C 11,0 UV-I 4,8 C 41 % 37 % 100 % 1022,3 hPa 0,0 l/m 5,6 km/h (1 Bft) 2 min 13,2 km/h (3 Bft)
26.06.2010 16:40 28,1 C 27,3 C 11,0 UV-I 4,8 C 40 % 36 % 100 % 1022,3 hPa 0,0 l/m 7,2 km/h (2 Bft) 2 min 12,9 km/h (3 Bft)
26.06.2010 16:42 28,2 C 27,3 C 11,4 UV-I 4,7 C 40 % 36 % 100 % 1022,3 hPa 0,0 l/m 8,0 km/h (2 Bft) 2 min 6,8 km/h (2 Bft)
26.06.2010 16:44 28,2 C 27,3 C 11,4 UV-I 4,6 C 40 % 37 % 100 % 1022,3 hPa 0,0 l/m 8,8 km/h (2 Bft) 2 min 4,5 km/h (1 Bft)
26.06.2010 16:46 28,2 C 27,5 C 11,4 UV-I 4,5 C 40 % 38 % 100 % 1022,3 hPa 0,0 l/m 8,4 km/h (2 Bft) 2 min 3,5 km/h (1 Bft)
26.06.2010 16:48 28,2 C 27,7 C 11,5 UV-I 4,5 C 40 % 36 % 100 % 1022,3 hPa 0,0 l/m 8,8 km/h (2 Bft) 2 min 13,5 km/h (3 Bft)
26.06.2010 16:50 28,2 C 27,6 C 11,5 UV-I 4,6 C 40 % 36 % 100 % 1022,3 hPa 0,0 l/m 8,8 km/h (2 Bft) 2 min 13,5 km/h (3 Bft)
26.06.2010 16:54 28,3 C 27,5 C 11,9 UV-I 4,5 C 40 % 36 % 100 % 1023,8 hPa 0,0 l/m 7,6 km/h (2 Bft) 2 min 14,5 km/h (3 Bft)
26.06.2010 16:58 28,4 C 27,5 C 11,8 UV-I 4,6 C 40 % 36 % 100 % 1023,8 hPa 0,0 l/m 9,2 km/h (2 Bft) 2 min 12,9 km/h (3 Bft)
26.06.2010 17:00 28,4 C 27,5 C 11,8 UV-I 4,5 C 40 % 36 % 100 % 1023,8 hPa 0,0 l/m 8,8 km/h (2 Bft) 2 min 13,8 km/h (3 Bft)
26.06.2010 17:02 28,4 C 27,5 C 11,9 UV-I 4,5 C 40 % 36 % 100 % 1023,8 hPa 0,0 l/m 8,0 km/h (2 Bft) 2 min 9,3 km/h (2 Bft)
26.06.2010 17:06 28,4 C 27,5 C 11,9 UV-I 4,4 C 40 % 36 % 100 % 1023,8 hPa 0,0 l/m 8,8 km/h (2 Bft) 2 min 10,9 km/h (2 Bft)
26.06.2010 17:08 28,4 C 27,3 C 11,8 UV-I 4,6 C 40 % 36 % 100 % 1023,8 hPa 0,0 l/m 9,6 km/h (2 Bft) 2 min 11,6 km/h (2 Bft)
26.06.2010 17:16 28,5 C 27,5 C 11,8 UV-I 4,3 C 40 % 37 % 100 % 1022,8 hPa 0,0 l/m 8,0 km/h (2 Bft) 2 min 4,2 km/h (1 Bft)
26.06.2010 17:20 28,5 C 27,5 C 11,8 UV-I 4,3 C 40 % 37 % 100 % 1022,8 hPa 0,0 l/m 7,6 km/h (2 Bft) 2 min 14,8 km/h (3 Bft)
26.06.2010 17:22 28,5 C 27,4 C 11,7 UV-I 4,5 C 40 % 36 % 100 % 1022,8 hPa 0,0 l/m 6,8 km/h (2 Bft) 2 min 5,8 km/h (2 Bft)
26.06.2010 17:26 28,5 C 27,5 C 11,7 UV-I 4,3 C 40 % 36 % 100 % 1022,8 hPa 0,0 l/m 8,8 km/h (2 Bft) 2 min 10,0 km/h (2 Bft)
26.06.2010 17:32 28,5 C 27,4 C 11,4 UV-I 4,2 C 40 % 35 % 100 % 1021,9 hPa 0,0 l/m 10,0 km/h (2 Bft) 2 min 13,8 km/h (3 Bft)
26.06.2010 17:34 28,5 C 27,2 C 11,4 UV-I 4,3 C 39 % 35 % 100 % 1021,9 hPa 0,0 l/m 10,4 km/h (2 Bft) 2 min 6,1 km/h (2 Bft)
26.06.2010 17:36 28,5 C 27,2 C 11,4 UV-I 4,3 C 40 % 36 % 100 % 1021,9 hPa 0,0 l/m 9,2 km/h (2 Bft) 2 min 3,9 km/h (1 Bft)
26.06.2010 17:40 28,5 C 27,2 C 11,0 UV-I 4,3 C 40 % 36 % 100 % 1021,9 hPa 0,0 l/m 8,8 km/h (2 Bft) 2 min 6,4 km/h (2 Bft)
26.06.2010 17:42 28,5 C 27,3 C 10,8 UV-I 4,1 C 39 % 36 % 100 % 1021,9 hPa 0,0 l/m 9,6 km/h (2 Bft) 2 min 16,1 km/h (3 Bft)
26.06.2010 17:50 28,5 C 27,0 C 10,5 UV-I 4,2 C 39 % 36 % 100 % 1021,9 hPa 0,0 l/m 12,0 km/h (2 Bft) 2 min 19,0 km/h (3 Bft)
26.06.2010 17:54 28,5 C 26,9 C 10,2 UV-I 4,1 C 40 % 36 % 100 % 1021,6 hPa 0,0 l/m 9,6 km/h (2 Bft) 2 min 4,2 km/h (1 Bft)
26.06.2010 17:56 28,5 C 26,9 C 10,2 UV-I 4,2 C 40 % 37 % 100 % 1021,6 hPa 0,0 l/m 8,0 km/h (2 Bft) 2 min 5,1 km/h (1 Bft)
26.06.2010 17:58 28,4 C 27,0 C 8,5 UV-I 4,2 C 40 % 36 % 100 % 1021,6 hPa 0,0 l/m 6,0 km/h (2 Bft) 2 min 6,1 km/h (2 Bft)
26.06.2010 18:02 28,4 C 27,0 C 6,5 UV-I 4,5 C 40 % 37 % 100 % 1021,6 hPa 0,0 l/m 4,4 km/h (1 Bft) 2 min 0,0 km/h (0 Bft)
26.06.2010 18:04 28,4 C 27,1 C 6,5 UV-I 4,4 C 40 % 36 % 100 % 1021,6 hPa 0,0 l/m 4,8 km/h (1 Bft) 2 min 12,2 km/h (2 Bft)
26.06.2010 18:06 28,4 C 27,0 C 6,5 UV-I 4,5 C 40 % 36 % 100 % 1021,6 hPa 0,0 l/m 5,2 km/h (1 Bft) 2 min 8,4 km/h (2 Bft)
26.06.2010 18:08 28,4 C 26,9 C 5,8 UV-I 4,6 C 40 % 36 % 100 % 1021,6 hPa 0,0 l/m 7,6 km/h (2 Bft) 2 min 19,6 km/h (3 Bft)
26.06.2010 18:12 28,4 C 26,9 C 5,5 UV-I 4,5 C 40 % 37 % 100 % 1022,1 hPa 0,0 l/m 7,2 km/h (2 Bft) 2 min 19,6 km/h (3 Bft)
26.06.2010 18:16 28,3 C 26,8 C 5,5 UV-I 4,5 C 40 % 37 % 100 % 1022,1 hPa 0,0 l/m 8,0 km/h (2 Bft) 2 min 10,9 km/h (2 Bft)
26.06.2010 18:18 28,3 C 26,8 C 4,8 UV-I 4,2 C 40 % 37 % 100 % 1022,1 hPa 0,0 l/m 7,6 km/h (2 Bft) 2 min 6,1 km/h (2 Bft)
26.06.2010 18:20 28,2 C 26,8 C 4,8 UV-I 3,8 C 40 % 36 % 100 % 1022,1 hPa 0,0 l/m 7,2 km/h (2 Bft) 2 min 12,9 km/h (3 Bft)
26.06.2010 18:22 28,2 C 26,7 C 4,3 UV-I 3,4 C 40 % 37 % 97 % 1022,1 hPa 0,0 l/m 8,0 km/h (2 Bft) 2 min 0,0 km/h (0 Bft)
26.06.2010 18:24 28,2 C 26,6 C 4,3 UV-I 3,4 C 40 % 37 % 97 % 1022,1 hPa 0,0 l/m 8,8 km/h (2 Bft) 2 min 8,0 km/h (2 Bft)
26.06.2010 18:26 28,1 C 26,6 C 4,3 UV-I 3,4 C 40 % 37 % 97 % 1022,1 hPa 0,0 l/m 8,8 km/h (2 Bft) 2 min 14,8 km/h (3 Bft)
26.06.2010 18:34 27,9 C 26,5 C 4,2 UV-I 2,7 C 40 % 37 % 77 % 1021,2 hPa 0,0 l/m 10,8 km/h (2 Bft) 0 min 10,0 km/h (2 Bft)
26.06.2010 18:36 27,9 C 26,5 C 4,2 UV-I 2,3 C 40 % 37 % 66 % 1021,2 hPa 0,0 l/m 10,8 km/h (2 Bft) 0 min 8,4 km/h (2 Bft)
26.06.2010 18:38 27,9 C 26,5 C 4,0 UV-I 2,1 C 40 % 38 % 60 % 1021,2 hPa 0,0 l/m 9,2 km/h (2 Bft) 0 min 6,1 km/h (2 Bft)
26.06.2010 18:42 27,8 C 26,4 C 3,9 UV-I 1,8 C 40 % 37 % 51 % 1021,2 hPa 0,0 l/m 8,4 km/h (2 Bft) 0 min 14,2 km/h (3 Bft)
26.06.2010 18:46 27,7 C 26,5 C 3,9 UV-I 1,1 C 40 % 37 % 31 % 1021,2 hPa 0,0 l/m 9,6 km/h (2 Bft) 0 min 13,5 km/h (3 Bft)
26.06.2010 18:56 27,5 C 26,3 C 3,8 UV-I 0,6 C 41 % 37 % 17 % 1020,6 hPa 0,0 l/m 9,2 km/h (2 Bft) 0 min 12,2 km/h (2 Bft)
26.06.2010 18:58 27,4 C 26,3 C 3,6 UV-I 0,6 C 41 % 38 % 17 % 1020,6 hPa 0,0 l/m 8,4 km/h (2 Bft) 0 min 5,5 km/h (1 Bft)
26.06.2010 19:04 27,2 C 26,3 C 3,5 UV-I 0,4 C 41 % 38 % 11 % 1020,6 hPa 0,0 l/m 6,0 km/h (2 Bft) 0 min 10,0 km/h (2 Bft)
26.06.2010 19:06 27,3 C 26,3 C 3,5 UV-I 0,3 C 41 % 38 % 9 % 1020,6 hPa 0,0 l/m 6,8 km/h (2 Bft) 0 min 11,6 km/h (2 Bft)
26.06.2010 19:10 27,2 C 26,2 C 3,5 UV-I 0,3 C 41 % 39 % 9 % 1020,6 hPa 0,0 l/m 6,8 km/h (2 Bft) 0 min 9,7 km/h (2 Bft)
26.06.2010 19:14 27,2 C 26,1 C 3,3 UV-I 0,1 C 41 % 39 % 3 % 1020,2 hPa 0,0 l/m 10,4 km/h (2 Bft) 0 min 5,8 km/h (2 Bft)
26.06.2010 19:20 27,0 C 26,0 C 3,2 UV-I 0,0 C 41 % 39 % 0 % 1020,2 hPa 0,0 l/m 9,2 km/h (2 Bft) 0 min 8,0 km/h (2 Bft)
26.06.2010 19:22 27,0 C 26,0 C 3,1 UV-I 0,0 C 42 % 39 % 0 % 1020,2 hPa 0,0 l/m 8,8 km/h (2 Bft) 0 min 11,9 km/h (2 Bft)
26.06.2010 19:30 26,9 C 25,8 C 3,0 UV-I 0,0 C 42 % 39 % 0 % 1020,2 hPa 0,0 l/m 8,8 km/h (2 Bft) 0 min 11,9 km/h (2 Bft)
26.06.2010 19:34 26,8 C 25,9 C 2,8 UV-I 0,0 C 42 % 40 % 0 % 1020,1 hPa 0,0 l/m 8,4 km/h (2 Bft) 0 min 10,6 km/h (2 Bft)
26.06.2010 19:36 26,8 C 25,9 C 2,8 UV-I 0,0 C 42 % 39 % 0 % 1020,1 hPa 0,0 l/m 8,4 km/h (2 Bft) 0 min 7,1 km/h (2 Bft)
26.06.2010 19:38 26,8 C 25,9 C 2,7 UV-I 0,0 C 42 % 39 % 0 % 1020,1 hPa 0,0 l/m 8,8 km/h (2 Bft) 0 min 12,9 km/h (3 Bft)
26.06.2010 19:40 26,8 C 25,9 C 2,7 UV-I 0,0 C 42 % 39 % 0 % 1020,1 hPa 0,0 l/m 8,0 km/h (2 Bft) 0 min 15,1 km/h (3 Bft)
26.06.2010 19:42 26,7 C 25,9 C 2,6 UV-I 0,0 C 42 % 39 % 0 % 1020,1 hPa 0,0 l/m 8,8 km/h (2 Bft) 0 min 13,5 km/h (3 Bft)
26.06.2010 19:44 26,7 C 25,9 C 2,6 UV-I 0,0 C 42 % 39 % 0 % 1020,1 hPa 0,0 l/m 8,8 km/h (2 Bft) 0 min 8,0 km/h (2 Bft)
26.06.2010 19:46 26,7 C 25,8 C 2,6 UV-I 0,0 C 42 % 39 % 0 % 1020,1 hPa 0,0 l/m 9,2 km/h (2 Bft) 0 min 12,2 km/h (2 Bft)
26.06.2010 19:52 26,6 C 25,7 C 2,4 UV-I 0,0 C 42 % 40 % 0 % 1019,9 hPa 0,0 l/m 7,2 km/h (2 Bft) 0 min 9,0 km/h (2 Bft)
26.06.2010 19:54 26,6 C 25,7 C 2,4 UV-I 0,0 C 42 % 40 % 0 % 1019,9 hPa 0,0 l/m 6,8 km/h (2 Bft) 0 min 10,0 km/h (2 Bft)
26.06.2010 19:58 26,6 C 25,6 C 2,3 UV-I 0,0 C 43 % 40 % 0 % 1019,9 hPa 0,0 l/m 7,6 km/h (2 Bft) 0 min 10,6 km/h (2 Bft)
26.06.2010 20:00 26,5 C 25,7 C 2,3 UV-I 0,0 C 43 % 40 % 0 % 1019,9 hPa 0,0 l/m 7,2 km/h (2 Bft) 0 min 8,7 km/h (2 Bft)
26.06.2010 20:02 26,5 C 25,7 C 2,2 UV-I 0,0 C 43 % 40 % 0 % 1019,9 hPa 0,0 l/m 7,6 km/h (2 Bft) 0 min 10,3 km/h (2 Bft)
26.06.2010 20:04 26,5 C 25,6 C 2,2 UV-I 0,0 C 43 % 40 % 0 % 1019,9 hPa 0,0 l/m 7,6 km/h (2 Bft) 0 min 3,9 km/h (1 Bft)
26.06.2010 20:06 26,5 C 25,5 C 2,2 UV-I 0,0 C 43 % 40 % 0 % 1019,9 hPa 0,0 l/m 7,6 km/h (2 Bft) 0 min 9,3 km/h (2 Bft)
26.06.2010 20:08 26,5 C 25,5 C 2,1 UV-I 0,0 C 43 % 40 % 0 % 1019,9 hPa 0,0 l/m 8,0 km/h (2 Bft) 0 min 10,3 km/h (2 Bft)
26.06.2010 20:12 26,4 C 25,4 C 2,0 UV-I 0,0 C 43 % 40 % 0 % 1019,6 hPa 0,0 l/m 9,2 km/h (2 Bft) 0 min 6,4 km/h (2 Bft)
26.06.2010 20:16 26,4 C 25,5 C 2,0 UV-I 0,0 C 43 % 40 % 0 % 1019,6 hPa 0,0 l/m 9,6 km/h (2 Bft) 0 min 10,0 km/h (2 Bft)
26.06.2010 20:18 26,4 C 25,3 C 1,9 UV-I 0,0 C 43 % 40 % 0 % 1019,6 hPa 0,0 l/m 9,6 km/h (2 Bft) 0 min 6,4 km/h (2 Bft)
26.06.2010 20:20 26,4 C 25,3 C 1,9 UV-I 0,0 C 43 % 41 % 0 % 1019,6 hPa 0,0 l/m 8,4 km/h (2 Bft) 0 min 7,1 km/h (2 Bft)
26.06.2010 20:26 26,2 C 25,2 C 1,7 UV-I 0,0 C 43 % 41 % 0 % 1019,6 hPa 0,0 l/m 8,0 km/h (2 Bft) 0 min 10,6 km/h (2 Bft)
26.06.2010 20:28 26,2 C 25,2 C 1,7 UV-I 0,0 C 43 % 41 % 0 % 1019,6 hPa 0,0 l/m 8,0 km/h (2 Bft) 0 min 10,6 km/h (2 Bft)
26.06.2010 20:30 26,2 C 25,1 C 1,7 UV-I 0,0 C 43 % 41 % 0 % 1019,6 hPa 0,0 l/m 8,0 km/h (2 Bft) 0 min 10,6 km/h (2 Bft)
26.06.2010 20:32 26,3 C 25,1 C 1,5 UV-I 0,0 C 43 % 41 % 0 % 1019,6 hPa 0,0 l/m 10,0 km/h (2 Bft) 0 min 7,4 km/h (2 Bft)
26.06.2010 20:34 26,2 C 25,1 C 1,5 UV-I 0,0 C 43 % 41 % 0 % 1019,6 hPa 0,0 l/m 10,0 km/h (2 Bft) 0 min 12,2 km/h (2 Bft)
26.06.2010 20:38 26,2 C 24,9 C 1,4 UV-I 0,0 C 43 % 42 % 0 % 1019,6 hPa 0,0 l/m 9,6 km/h (2 Bft) 0 min 8,0 km/h (2 Bft)
26.06.2010 20:40 26,2 C 24,9 C 1,4 UV-I 0,0 C 43 % 41 % 0 % 1019,6 hPa 0,0 l/m 8,4 km/h (2 Bft) 0 min 3,9 km/h (1 Bft)
26.06.2010 20:44 26,2 C 24,9 C 1,4 UV-I 0,0 C 43 % 42 % 0 % 1019,6 hPa 0,0 l/m 8,0 km/h (2 Bft) 0 min 10,9 km/h (2 Bft)
26.06.2010 20:46 26,2 C 24,8 C 1,4 UV-I 0,0 C 43 % 42 % 0 % 1019,6 hPa 0,0 l/m 8,0 km/h (2 Bft) 0 min 8,4 km/h (2 Bft)
26.06.2010 20:48 26,2 C 24,7 C 1,2 UV-I 0,0 C 43 % 42 % 0 % 1019,6 hPa 0,0 l/m 7,2 km/h (2 Bft) 0 min 8,7 km/h (2 Bft)
26.06.2010 20:50 26,2 C 24,6 C 1,2 UV-I 0,0 C 43 % 42 % 0 % 1019,6 hPa 0,0 l/m 7,2 km/h (2 Bft) 0 min 8,7 km/h (2 Bft)
26.06.2010 20:52 26,1 C 24,6 C 1,1 UV-I 0,0 C 43 % 42 % 0 % 1019,8 hPa 0,0 l/m 7,6 km/h (2 Bft) 0 min 6,8 km/h (2 Bft)
26.06.2010 20:54 26,1 C 24,6 C 1,1 UV-I 0,0 C 44 % 42 % 0 % 1019,8 hPa 0,0 l/m 7,6 km/h (2 Bft) 0 min 3,9 km/h (1 Bft)
26.06.2010 20:56 26,1 C 24,5 C 1,1 UV-I 0,0 C 43 % 43 % 0 % 1019,8 hPa 0,0 l/m 6,4 km/h (2 Bft) 0 min 3,5 km/h (1 Bft)
26.06.2010 20:58 26,1 C 24,4 C 1,0 UV-I 0,0 C 44 % 43 % 0 % 1019,8 hPa 0,0 l/m 8,0 km/h (2 Bft) 0 min 6,4 km/h (2 Bft)
26.06.2010 21:00 26,1 C 24,4 C 1,0 UV-I 0,0 C 44 % 43 % 0 % 1019,8 hPa 0,0 l/m 8,0 km/h (2 Bft) 0 min 6,8 km/h (2 Bft)
26.06.2010 21:04 26,0 C 24,3 C 0,9 UV-I 0,0 C 44 % 43 % 0 % 1019,8 hPa 0,0 l/m 7,2 km/h (2 Bft) 0 min 12,9 km/h (3 Bft)
26.06.2010 21:06 26,0 C 24,3 C 0,9 UV-I 0,0 C 44 % 43 % 0 % 1019,8 hPa 0,0 l/m 8,0 km/h (2 Bft) 0 min 8,4 km/h (2 Bft)
26.06.2010 21:08 26,0 C 24,2 C 0,8 UV-I 0,0 C 44 % 44 % 0 % 1019,8 hPa 0,0 l/m 7,2 km/h (2 Bft) 0 min 0,0 km/h (0 Bft)
26.06.2010 21:12 26,0 C 24,1 C 0,7 UV-I 0,0 C 44 % 44 % 0 % 1020,0 hPa 0,0 l/m 6,8 km/h (2 Bft) 0 min 7,1 km/h (2 Bft)
26.06.2010 21:14 26,0 C 24,0 C 0,7 UV-I 0,0 C 44 % 44 % 0 % 1020,0 hPa 0,0 l/m 6,4 km/h (2 Bft) 0 min 5,5 km/h (1 Bft)
26.06.2010 21:16 26,0 C 24,0 C 0,7 UV-I 0,0 C 44 % 44 % 0 % 1020,0 hPa 0,0 l/m 6,4 km/h (2 Bft) 0 min 6,4 km/h (2 Bft)
26.06.2010 21:20 26,0 C 23,9 C 0,7 UV-I 0,0 C 44 % 44 % 0 % 1020,0 hPa 0,0 l/m 6,0 km/h (2 Bft) 0 min 5,5 km/h (1 Bft)
26.06.2010 21:26 25,9 C 23,6 C 0,6 UV-I 0,0 C 44 % 45 % 0 % 1020,0 hPa 0,0 l/m 5,6 km/h (1 Bft) 0 min 7,1 km/h (2 Bft)
26.06.2010 21:28 25,9 C 23,7 C 0,5 UV-I 0,0 C 44 % 45 % 0 % 1020,0 hPa 0,0 l/m 5,6 km/h (1 Bft) 0 min 6,1 km/h (2 Bft)
26.06.2010 21:30 25,9 C 23,6 C 0,5 UV-I 0,0 C 44 % 45 % 0 % 1020,0 hPa 0,0 l/m 5,6 km/h (1 Bft) 0 min 6,1 km/h (2 Bft)
26.06.2010 21:32 25,8 C 23,5 C 0,4 UV-I 0,0 C 44 % 45 % 0 % 1019,8 hPa 0,0 l/m 5,6 km/h (1 Bft) 0 min 6,4 km/h (2 Bft)
26.06.2010 21:36 25,8 C 23,3 C 0,4 UV-I 0,0 C 44 % 45 % 0 % 1019,8 hPa 0,0 l/m 4,8 km/h (1 Bft) 0 min 0,0 km/h (0 Bft)
26.06.2010 21:38 25,8 C 23,3 C 0,3 UV-I 0,0 C 44 % 46 % 0 % 1019,8 hPa 0,0 l/m 4,4 km/h (1 Bft) 0 min 3,5 km/h (1 Bft)
26.06.2010 21:42 25,7 C 23,1 C 0,3 UV-I 0,0 C 44 % 46 % 0 % 1019,8 hPa 0,0 l/m 4,0 km/h (1 Bft) 0 min 4,5 km/h (1 Bft)
26.06.2010 21:43 25,7 C 23,0 C 0,3 UV-I 0,0 C 44 % 46 % 0 % 1019,8 hPa 0,0 l/m 4,0 km/h (1 Bft) 0 min 3,2 km/h (1 Bft)
26.06.2010 21:48 25,6 C 22,8 C 0,2 UV-I 0,0 C 44 % 47 % 0 % 1019,8 hPa 0,0 l/m 4,0 km/h (1 Bft) 0 min 0,0 km/h (0 Bft)
26.06.2010 21:53 25,6 C 22,7 C 0,2 UV-I 0,0 C 44 % 47 % 0 % 1019,8 hPa 0,0 l/m 3,2 km/h (1 Bft) 0 min 0,0 km/h (0 Bft)
26.06.2010 21:58 25,5 C 22,5 C 0,1 UV-I 0,0 C 45 % 48 % 0 % 1019,8 hPa 0,0 l/m 2,0 km/h (1 Bft) 0 min 0,0 km/h (0 Bft)
26.06.2010 22:03 25,4 C 22,4 C 0,1 UV-I 0,0 C 45 % 48 % 0 % 1019,8 hPa 0,0 l/m 0,0 km/h (0 Bft) 0 min 0,0 km/h (0 Bft)
26.06.2010 22:08 25,4 C 22,1 C 0,1 UV-I 0,0 C 45 % 49 % 0 % 1019,8 hPa 0,0 l/m 0,0 km/h (0 Bft) 0 min 0,0 km/h (0 Bft)
26.06.2010 22:13 25,2 C 22,1 C 0,1 UV-I 0,0 C 45 % 50 % 0 % 1020,3 hPa 0,0 l/m 0,0 km/h (0 Bft) 0 min 0,0 km/h (0 Bft)
26.06.2010 22:18 25,2 C 21,9 C 0,1 UV-I 0,0 C 45 % 50 % 0 % 1020,3 hPa 0,0 l/m 0,0 km/h (0 Bft) 0 min 0,0 km/h (0 Bft)
26.06.2010 22:23 25,2 C 21,6 C 0,1 UV-I 0,0 C 45 % 51 % 0 % 1020,3 hPa 0,0 l/m 0,0 km/h (0 Bft) 0 min 0,0 km/h (0 Bft)
26.06.2010 22:28 25,2 C 21,4 C 0,1 UV-I 0,0 C 45 % 52 % 0 % 1020,3 hPa 0,0 l/m 0,0 km/h (0 Bft) 0 min 0,0 km/h (0 Bft)
26.06.2010 22:33 25,1 C 21,2 C 0,1 UV-I 0,0 C 46 % 52 % 0 % 1020,4 hPa 0,0 l/m 0,0 km/h (0 Bft) 0 min 0,0 km/h (0 Bft)
26.06.2010 22:38 25,1 C 20,9 C 0,1 UV-I 0,0 C 46 % 53 % 0 % 1020,4 hPa 0,0 l/m 0,0 km/h (0 Bft) 0 min 0,0 km/h (0 Bft)
26.06.2010 22:43 25,0 C 20,7 C 0,1 UV-I 0,0 C 46 % 54 % 0 % 1020,4 hPa 0,0 l/m 0,0 km/h (0 Bft) 0 min 0,0 km/h (0 Bft)
26.06.2010 22:48 25,0 C 20,5 C 0,1 UV-I 0,0 C 46 % 55 % 0 % 1020,4 hPa 0,0 l/m 0,0 km/h (0 Bft) 0 min 0,0 km/h (0 Bft)
26.06.2010 22:53 25,0 C 20,5 C 0,1 UV-I 0,0 C 46 % 55 % 0 % 1020,4 hPa 0,0 l/m 0,4 km/h (0 Bft) 0 min 0,0 km/h (0 Bft)
26.06.2010 22:58 24,9 C 20,4 C 0,1 UV-I 0,0 C 46 % 55 % 0 % 1020,4 hPa 0,0 l/m 0,4 km/h (0 Bft) 0 min 0,0 km/h (0 Bft)
26.06.2010 23:03 24,8 C 20,3 C 0,1 UV-I 0,0 C 46 % 55 % 0 % 1020,4 hPa 0,0 l/m 0,4 km/h (0 Bft) 0 min 0,0 km/h (0 Bft)
26.06.2010 23:08 24,8 C 20,1 C 0,1 UV-I 0,0 C 46 % 56 % 0 % 1020,4 hPa 0,0 l/m 0,0 km/h (0 Bft) 0 min 0,0 km/h (0 Bft)
26.06.2010 23:13 24,8 C 20,0 C 0,1 UV-I 0,0 C 47 % 56 % 0 % 1020,5 hPa 0,0 l/m 0,0 km/h (0 Bft) 0 min 0,0 km/h (0 Bft)
26.06.2010 23:18 24,8 C 19,9 C 0,1 UV-I 0,0 C 47 % 57 % 0 % 1020,5 hPa 0,0 l/m 0,0 km/h (0 Bft) 0 min 0,0 km/h (0 Bft)
26.06.2010 23:23 24,8 C 19,7 C 0,1 UV-I 0,0 C 47 % 57 % 0 % 1020,5 hPa 0,0 l/m 0,0 km/h (0 Bft) 0 min 0,0 km/h (0 Bft)
26.06.2010 23:28 24,7 C 19,5 C 0,1 UV-I 0,0 C 47 % 57 % 0 % 1020,5 hPa 0,0 l/m 0,0 km/h (0 Bft) 0 min 0,0 km/h (0 Bft)
26.06.2010 23:33 24,7 C 19,5 C 0,1 UV-I 0,0 C 47 % 57 % 0 % 1020,7 hPa 0,0 l/m 0,0 km/h (0 Bft) 0 min 0,0 km/h (0 Bft)
26.06.2010 23:38 24,6 C 19,5 C 0,1 UV-I 0,0 C 47 % 56 % 0 % 1020,7 hPa 0,0 l/m 0,0 km/h (0 Bft) 0 min 0,0 km/h (0 Bft)
26.06.2010 23:43 24,6 C 19,5 C 0,1 UV-I 0,0 C 47 % 56 % 0 % 1020,7 hPa 0,0 l/m 0,0 km/h (0 Bft) 0 min 0,0 km/h (0 Bft)
26.06.2010 23:48 24,6 C 19,5 C 0,1 UV-I 0,0 C 47 % 55 % 0 % 1020,7 hPa 0,0 l/m 0,0 km/h (0 Bft) 0 min 0,0 km/h (0 Bft)
26.06.2010 23:53 24,6 C 19,5 C 0,1 UV-I 0,0 C 47 % 55 % 0 % 1020,6 hPa 0,0 l/m 0,0 km/h (0 Bft) 0 min 0,0 km/h (0 Bft)
26.06.2010 23:58 24,6 C 19,6 C 0,1 UV-I 0,0 C 47 % 55 % 0 % 1020,6 hPa 0,0 l/m 0,0 km/h (0 Bft) 0 min 0,0 km/h (0 Bft)
_ Min-Zeit 06:32 05:52 00:33 00:03 17:34 17:32 00:03 00:33 - 00:03 - 00:03
Minimum _ 22,2 C 12,6 C 0,0 UV-I 0,0 C 39 % 35 % 0 % 1019,2 hPa - 0,0 km/h (0 Bft) - 0,0 km/h (0 Bft)
_ Max-Zeit 17:16 16:14 10:38 09:00 05:52 06:00 08:14 16:54 00:03 17:50 08:14 14:42
Maximum _ 28,5 C 27,7 C 15,8 UV-I 7,8 C 53 % 84 % 100 % 1023,8 hPa 0,0 l/m 12,0 km/h
N (2 Bft)
2 min 23,8 km/h
S (4 Bft)
Durchschnitt _ 24,5 C 21,0 C 5,0 UV-I 2,4 C 48 % 56 % 44 % 1020,3 hPa #0,0 l/m 3,7 km/h (1 Bft) #7:58 h 4,6 km/h (1 Bft)
© 2012 W. Hausmann